Wetterdaten: Samstag, 18.06.2011
Datum Zeit Temp. Innen Temp. Aussen UV X Diff Temp. Feuchte Inne Feuchte Auss Sonnenschein Luftdruck Regen ab 0,1 Wind Sonnenschein T Regendauer Windben
18.06.2011 00:00 21,8 C 13,8 C 0,0 UV-I 0,0 C 55 % 87 % 0 % 1005,3 hPa 0,0 l/m 0,4 km/h (0 Bft) 0 min 0 min 0,0 km/h (0 Bft)
18.06.2011 00:02 21,8 C 13,8 C 0,0 UV-I 0,0 C 55 % 87 % 0 % 1005,3 hPa 0,0 l/m 0,4 km/h (0 Bft) 0 min 0 min 0,0 km/h (0 Bft)
18.06.2011 00:04 21,8 C 13,8 C 0,0 UV-I 0,0 C 55 % 87 % 0 % 1005,3 hPa 0,0 l/m 0,4 km/h (0 Bft) 0 min 0 min 0,0 km/h (0 Bft)
18.06.2011 00:06 21,8 C 13,9 C 0,0 UV-I 0,0 C 55 % 87 % 0 % 1004,7 hPa 0,0 l/m 0,4 km/h (0 Bft) 0 min 0 min 0,0 km/h (0 Bft)
18.06.2011 00:08 21,8 C 13,9 C 0,0 UV-I 0,0 C 55 % 87 % 0 % 1004,7 hPa 0,0 l/m 0,4 km/h (0 Bft) 0 min 0 min 4,5 km/h (1 Bft)
18.06.2011 00:10 21,8 C 13,9 C 0,0 UV-I 0,0 C 56 % 87 % 0 % 1004,7 hPa 0,0 l/m 0,4 km/h (0 Bft) 0 min 0 min 0,0 km/h (0 Bft)
18.06.2011 00:12 21,8 C 13,9 C 0,0 UV-I 0,0 C 55 % 87 % 0 % 1004,7 hPa 0,0 l/m 0,4 km/h (0 Bft) 0 min 0 min 0,0 km/h (0 Bft)
18.06.2011 00:14 21,8 C 13,9 C 0,0 UV-I 0,0 C 55 % 87 % 0 % 1004,7 hPa 0,0 l/m 0,8 km/h (0 Bft) 0 min 0 min 3,2 km/h (1 Bft)
18.06.2011 00:16 21,8 C 13,8 C 0,0 UV-I 0,0 C 55 % 87 % 0 % 1004,7 hPa 0,0 l/m 2,0 km/h (1 Bft) 0 min 0 min 3,5 km/h (1 Bft)
18.06.2011 00:18 21,8 C 13,9 C 0,0 UV-I 0,0 C 55 % 87 % 0 % 1004,7 hPa 0,0 l/m 2,0 km/h (1 Bft) 0 min 0 min 0,0 km/h (0 Bft)
18.06.2011 00:20 21,8 C 13,8 C 0,0 UV-I 0,0 C 56 % 87 % 0 % 1004,7 hPa 0,0 l/m 2,4 km/h (1 Bft) 0 min 0 min 6,8 km/h (2 Bft)
18.06.2011 00:22 21,8 C 13,8 C 0,0 UV-I 0,0 C 55 % 87 % 0 % 1004,7 hPa 0,0 l/m 3,6 km/h (1 Bft) 0 min 0 min 5,5 km/h (1 Bft)
18.06.2011 00:24 21,8 C 13,8 C 0,0 UV-I 0,0 C 55 % 87 % 0 % 1004,7 hPa 0,0 l/m 4,4 km/h (1 Bft) 0 min 0 min 3,2 km/h (1 Bft)
18.06.2011 00:26 21,8 C 13,8 C 0,0 UV-I 0,0 C 55 % 87 % 0 % 1004,6 hPa 0,0 l/m 4,4 km/h (1 Bft) 0 min 0 min 9,7 km/h (2 Bft)
18.06.2011 00:28 21,8 C 13,8 C 0,0 UV-I 0,0 C 56 % 87 % 0 % 1004,6 hPa 0,0 l/m 4,0 km/h (1 Bft) 0 min 0 min 0,0 km/h (0 Bft)
18.06.2011 00:30 21,8 C 13,9 C 0,1 UV-I 0,0 C 56 % 87 % 0 % 1004,6 hPa 0,0 l/m 4,4 km/h (1 Bft) 0 min 0 min 5,5 km/h (1 Bft)
18.06.2011 00:32 21,8 C 13,8 C 0,1 UV-I 0,0 C 56 % 87 % 0 % 1004,6 hPa 0,0 l/m 4,0 km/h (1 Bft) 0 min 2 min 3,9 km/h (1 Bft)
18.06.2011 00:34 21,8 C 13,8 C 0,0 UV-I 0,0 C 56 % 87 % 0 % 1004,6 hPa 0,0 l/m 3,6 km/h (1 Bft) 0 min 2 min 0,0 km/h (0 Bft)
18.06.2011 00:36 21,7 C 13,8 C 0,0 UV-I 0,0 C 56 % 87 % 0 % 1004,6 hPa 0,0 l/m 3,6 km/h (1 Bft) 0 min 0 min 11,3 km/h (2 Bft)
18.06.2011 00:38 21,7 C 13,9 C 0,0 UV-I 0,0 C 56 % 87 % 0 % 1004,6 hPa 0,0 l/m 3,6 km/h (1 Bft) 0 min 0 min 3,2 km/h (1 Bft)
18.06.2011 00:40 21,7 C 13,8 C 0,0 UV-I 0,0 C 56 % 87 % 0 % 1004,6 hPa 0,0 l/m 3,2 km/h (1 Bft) 0 min 0 min 3,9 km/h (1 Bft)
18.06.2011 00:42 21,7 C 13,8 C 0,0 UV-I 0,0 C 56 % 88 % 0 % 1004,6 hPa 0,0 l/m 2,4 km/h (1 Bft) 0 min 2 min 3,5 km/h (1 Bft)
18.06.2011 00:44 21,7 C 13,8 C 0,0 UV-I 0,0 C 56 % 88 % 0 % 1004,6 hPa 0,0 l/m 1,6 km/h (1 Bft) 0 min 2 min 0,0 km/h (0 Bft)
18.06.2011 00:46 21,7 C 13,9 C 0,0 UV-I 0,0 C 56 % 88 % 0 % 1004,2 hPa 0,0 l/m 1,2 km/h (1 Bft) 0 min 2 min 0,0 km/h (0 Bft)
18.06.2011 00:48 21,7 C 13,9 C 0,0 UV-I 0,0 C 56 % 88 % 0 % 1004,2 hPa 0,0 l/m 0,8 km/h (0 Bft) 0 min 2 min 0,0 km/h (0 Bft)
18.06.2011 00:50 21,7 C 13,9 C 0,0 UV-I 0,0 C 56 % 88 % 0 % 1004,2 hPa 0,0 l/m 1,2 km/h (1 Bft) 0 min 2 min 3,2 km/h (1 Bft)
18.06.2011 00:52 21,7 C 13,9 C 0,0 UV-I 0,0 C 56 % 88 % 0 % 1004,2 hPa 0,0 l/m 1,6 km/h (1 Bft) 0 min 2 min 4,5 km/h (1 Bft)
18.06.2011 00:54 21,7 C 13,9 C 0,0 UV-I 0,0 C 56 % 88 % 0 % 1004,2 hPa 0,1 l/m 1,6 km/h (1 Bft) 0 min 2 min 0,0 km/h (0 Bft)
18.06.2011 00:56 21,6 C 13,9 C 0,0 UV-I 0,0 C 56 % 88 % 0 % 1004,2 hPa 0,0 l/m 1,6 km/h (1 Bft) 0 min 0 min 0,0 km/h (0 Bft)
18.06.2011 00:58 21,6 C 13,9 C 0,0 UV-I 0,0 C 56 % 88 % 0 % 1004,2 hPa 0,0 l/m 2,0 km/h (1 Bft) 0 min 0 min 5,1 km/h (1 Bft)
18.06.2011 01:00 21,6 C 13,9 C 0,0 UV-I 0,0 C 56 % 88 % 0 % 1004,2 hPa 0,0 l/m 1,6 km/h (1 Bft) 0 min 2 min 0,0 km/h (0 Bft)
18.06.2011 01:02 21,6 C 13,9 C 0,0 UV-I 0,0 C 56 % 88 % 0 % 1004,2 hPa 0,0 l/m 1,2 km/h (1 Bft) 0 min 0 min 0,0 km/h (0 Bft)
18.06.2011 01:04 21,6 C 13,9 C 0,0 UV-I 0,0 C 56 % 88 % 0 % 1004,2 hPa 0,0 l/m 0,8 km/h (0 Bft) 0 min 0 min 0,0 km/h (0 Bft)
18.06.2011 01:06 21,6 C 13,9 C 0,0 UV-I 0,0 C 56 % 88 % 0 % 1004,2 hPa 0,0 l/m 2,0 km/h (1 Bft) 0 min 2 min 11,6 km/h (2 Bft)
18.06.2011 01:08 21,6 C 13,9 C 0,0 UV-I 0,0 C 56 % 88 % 0 % 1004,2 hPa 0,1 l/m 2,8 km/h (1 Bft) 0 min 2 min 8,7 km/h (2 Bft)
18.06.2011 01:10 21,6 C 13,9 C 0,0 UV-I 0,0 C 56 % 88 % 0 % 1004,2 hPa 0,0 l/m 2,8 km/h (1 Bft) 0 min 2 min 0,0 km/h (0 Bft)
18.06.2011 01:12 21,6 C 13,9 C 0,0 UV-I 0,0 C 56 % 88 % 0 % 1004,2 hPa 0,1 l/m 3,6 km/h (1 Bft) 0 min 2 min 6,4 km/h (2 Bft)
18.06.2011 01:14 21,6 C 13,9 C 0,0 UV-I 0,0 C 56 % 89 % 0 % 1004,2 hPa 0,2 l/m 4,4 km/h (1 Bft) 0 min 2 min 0,0 km/h (0 Bft)
18.06.2011 01:16 21,6 C 13,8 C 0,0 UV-I 0,0 C 56 % 89 % 0 % 1004,2 hPa 0,0 l/m 4,0 km/h (1 Bft) 0 min 2 min 0,0 km/h (0 Bft)
18.06.2011 01:18 21,6 C 13,7 C 0,0 UV-I 0,0 C 56 % 89 % 0 % 1004,2 hPa 0,1 l/m 3,2 km/h (1 Bft) 0 min 2 min 4,2 km/h (1 Bft)
18.06.2011 01:20 21,6 C 13,7 C 0,0 UV-I 0,0 C 56 % 89 % 0 % 1004,2 hPa 0,0 l/m 2,4 km/h (1 Bft) 0 min 2 min 4,8 km/h (1 Bft)
18.06.2011 01:22 21,6 C 13,7 C 0,0 UV-I 0,0 C 56 % 89 % 0 % 1004,2 hPa 0,0 l/m 2,4 km/h (1 Bft) 0 min 2 min 6,8 km/h (2 Bft)
18.06.2011 01:24 21,6 C 13,7 C 0,0 UV-I 0,0 C 56 % 89 % 0 % 1004,2 hPa 0,1 l/m 2,0 km/h (1 Bft) 0 min 2 min 4,8 km/h (1 Bft)
18.06.2011 01:26 21,6 C 13,7 C 0,0 UV-I 0,0 C 56 % 89 % 0 % 1003,8 hPa 0,0 l/m 2,0 km/h (1 Bft) 0 min 2 min 4,5 km/h (1 Bft)
18.06.2011 01:28 21,6 C 13,7 C 0,0 UV-I 0,0 C 56 % 89 % 0 % 1003,8 hPa 0,0 l/m 2,0 km/h (1 Bft) 0 min 2 min 5,5 km/h (1 Bft)
18.06.2011 01:30 21,6 C 13,7 C 0,0 UV-I 0,0 C 56 % 89 % 0 % 1003,8 hPa 0,0 l/m 2,4 km/h (1 Bft) 0 min 2 min 4,5 km/h (1 Bft)
18.06.2011 01:32 21,6 C 13,6 C 0,0 UV-I 0,0 C 56 % 89 % 0 % 1003,8 hPa 0,1 l/m 2,8 km/h (1 Bft) 0 min 2 min 5,8 km/h (2 Bft)
18.06.2011 01:34 21,6 C 13,6 C 0,0 UV-I 0,0 C 56 % 89 % 0 % 1003,8 hPa 0,0 l/m 2,8 km/h (1 Bft) 0 min 2 min 5,8 km/h (2 Bft)
18.06.2011 01:36 21,6 C 13,6 C 0,0 UV-I 0,0 C 57 % 89 % 0 % 1003,8 hPa 0,2 l/m 2,8 km/h (1 Bft) 0 min 2 min 0,0 km/h (0 Bft)
18.06.2011 01:38 21,6 C 13,6 C 0,0 UV-I 0,0 C 57 % 89 % 0 % 1003,8 hPa 0,3 l/m 2,8 km/h (1 Bft) 0 min 2 min 0,0 km/h (0 Bft)
18.06.2011 01:40 21,6 C 13,7 C 0,0 UV-I 0,0 C 57 % 89 % 0 % 1003,8 hPa 0,0 l/m 2,8 km/h (1 Bft) 0 min 2 min 0,0 km/h (0 Bft)
18.06.2011 01:42 21,5 C 13,7 C 0,0 UV-I 0,0 C 57 % 89 % 0 % 1003,8 hPa 0,2 l/m 2,4 km/h (1 Bft) 0 min 2 min 0,0 km/h (0 Bft)
18.06.2011 01:44 21,5 C 13,7 C 0,0 UV-I 0,0 C 57 % 89 % 0 % 1003,8 hPa 0,0 l/m 2,4 km/h (1 Bft) 0 min 0 min 5,1 km/h (1 Bft)
18.06.2011 01:46 21,5 C 13,6 C 0,0 UV-I 0,0 C 57 % 89 % 0 % 1003,1 hPa 0,0 l/m 2,0 km/h (1 Bft) 0 min 0 min 0,0 km/h (0 Bft)
18.06.2011 01:48 21,5 C 13,6 C 0,0 UV-I 0,0 C 57 % 89 % 0 % 1003,1 hPa 0,0 l/m 2,4 km/h (1 Bft) 0 min 0 min 6,8 km/h (2 Bft)
18.06.2011 01:50 21,5 C 13,6 C 0,0 UV-I 0,0 C 57 % 89 % 0 % 1003,1 hPa 0,0 l/m 2,8 km/h (1 Bft) 0 min 0 min 4,8 km/h (1 Bft)
18.06.2011 01:52 21,5 C 13,6 C 0,0 UV-I 0,0 C 57 % 89 % 0 % 1003,1 hPa 0,0 l/m 2,4 km/h (1 Bft) 0 min 0 min 3,2 km/h (1 Bft)
18.06.2011 01:54 21,5 C 13,6 C 0,0 UV-I 0,0 C 57 % 89 % 0 % 1003,1 hPa 0,0 l/m 2,8 km/h (1 Bft) 0 min 0 min 4,5 km/h (1 Bft)
18.06.2011 01:56 21,5 C 13,5 C 0,0 UV-I 0,0 C 57 % 89 % 0 % 1003,1 hPa 0,0 l/m 3,2 km/h (1 Bft) 0 min 0 min 14,5 km/h (3 Bft)
18.06.2011 01:58 21,5 C 13,5 C 0,0 UV-I 0,0 C 57 % 89 % 0 % 1003,1 hPa 0,0 l/m 3,6 km/h (1 Bft) 0 min 0 min 3,5 km/h (1 Bft)
18.06.2011 02:00 21,5 C 13,5 C 0,0 UV-I 0,0 C 57 % 89 % 0 % 1003,1 hPa 0,0 l/m 3,2 km/h (1 Bft) 0 min 0 min 6,8 km/h (2 Bft)
18.06.2011 02:02 21,5 C 13,5 C 0,0 UV-I 0,0 C 57 % 89 % 0 % 1003,1 hPa 0,0 l/m 2,8 km/h (1 Bft) 0 min 0 min 3,2 km/h (1 Bft)
18.06.2011 02:04 21,5 C 13,5 C 0,0 UV-I 0,0 C 57 % 89 % 0 % 1003,1 hPa 0,0 l/m 3,2 km/h (1 Bft) 0 min 0 min 5,1 km/h (1 Bft)
18.06.2011 02:06 21,5 C 13,5 C 0,0 UV-I 0,0 C 57 % 89 % 0 % 1002,9 hPa 0,0 l/m 2,8 km/h (1 Bft) 0 min 0 min 4,5 km/h (1 Bft)
18.06.2011 02:08 21,5 C 13,5 C 0,0 UV-I 0,0 C 57 % 89 % 0 % 1002,9 hPa 0,0 l/m 2,8 km/h (1 Bft) 0 min 0 min 6,1 km/h (2 Bft)
18.06.2011 02:10 21,5 C 13,5 C 0,0 UV-I 0,0 C 57 % 89 % 0 % 1002,9 hPa 0,0 l/m 4,4 km/h (1 Bft) 0 min 0 min 11,6 km/h (2 Bft)
18.06.2011 02:12 21,5 C 13,5 C 0,0 UV-I 0,0 C 57 % 90 % 0 % 1002,9 hPa 0,0 l/m 5,2 km/h (1 Bft) 0 min 0 min 4,5 km/h (1 Bft)
18.06.2011 02:14 21,4 C 13,4 C 0,0 UV-I 0,0 C 57 % 90 % 0 % 1002,9 hPa 0,0 l/m 5,6 km/h (1 Bft) 0 min 0 min 6,8 km/h (2 Bft)
18.06.2011 02:16 21,5 C 13,4 C 0,0 UV-I 0,0 C 57 % 90 % 0 % 1002,9 hPa 0,0 l/m 5,6 km/h (1 Bft) 0 min 0 min 4,8 km/h (1 Bft)
18.06.2011 02:18 21,5 C 13,3 C 0,0 UV-I 0,0 C 57 % 90 % 0 % 1002,9 hPa 0,0 l/m 5,6 km/h (1 Bft) 0 min 0 min 4,8 km/h (1 Bft)
18.06.2011 02:20 21,4 C 13,4 C 0,0 UV-I 0,0 C 57 % 90 % 0 % 1002,9 hPa 0,0 l/m 4,4 km/h (1 Bft) 0 min 0 min 8,0 km/h (2 Bft)
18.06.2011 02:22 21,4 C 13,3 C 0,0 UV-I 0,0 C 57 % 90 % 0 % 1002,9 hPa 0,0 l/m 4,4 km/h (1 Bft) 0 min 0 min 3,9 km/h (1 Bft)
18.06.2011 02:24 21,5 C 13,3 C 0,0 UV-I 0,0 C 57 % 90 % 0 % 1002,9 hPa 0,0 l/m 4,4 km/h (1 Bft) 0 min 0 min 3,2 km/h (1 Bft)
18.06.2011 02:26 21,4 C 13,3 C 0,0 UV-I 0,0 C 57 % 90 % 0 % 1002,5 hPa 0,0 l/m 4,0 km/h (1 Bft) 0 min 0 min 8,4 km/h (2 Bft)
18.06.2011 02:28 21,4 C 13,3 C 0,0 UV-I 0,0 C 57 % 90 % 0 % 1002,5 hPa 0,0 l/m 4,0 km/h (1 Bft) 0 min 0 min 3,2 km/h (1 Bft)
18.06.2011 02:30 21,4 C 13,3 C 0,0 UV-I 0,0 C 57 % 90 % 0 % 1002,5 hPa 0,0 l/m 4,4 km/h (1 Bft) 0 min 0 min 6,4 km/h (2 Bft)
18.06.2011 02:32 21,4 C 13,3 C 0,0 UV-I 0,0 C 57 % 90 % 0 % 1002,5 hPa 0,0 l/m 4,0 km/h (1 Bft) 0 min 0 min 4,8 km/h (1 Bft)
18.06.2011 02:34 21,4 C 13,3 C 0,0 UV-I 0,0 C 57 % 90 % 0 % 1002,5 hPa 0,0 l/m 4,8 km/h (1 Bft) 0 min 0 min 9,7 km/h (2 Bft)
18.06.2011 02:36 21,4 C 13,3 C 0,0 UV-I 0,0 C 57 % 90 % 0 % 1002,5 hPa 0,0 l/m 4,8 km/h (1 Bft) 0 min 0 min 0,0 km/h (0 Bft)
18.06.2011 02:38 21,4 C 13,3 C 0,0 UV-I 0,0 C 57 % 90 % 0 % 1002,5 hPa 0,0 l/m 5,2 km/h (1 Bft) 0 min 0 min 11,3 km/h (2 Bft)
18.06.2011 02:40 21,4 C 13,4 C 0,0 UV-I 0,0 C 57 % 90 % 0 % 1002,5 hPa 0,1 l/m 6,4 km/h (2 Bft) 0 min 0 min 9,7 km/h (2 Bft)
18.06.2011 02:42 21,4 C 13,5 C 0,0 UV-I 0,0 C 57 % 90 % 0 % 1002,5 hPa 0,0 l/m 6,8 km/h (2 Bft) 0 min 0 min 10,6 km/h (2 Bft)
18.06.2011 02:44 21,4 C 13,5 C 0,0 UV-I 0,0 C 57 % 90 % 0 % 1002,5 hPa 0,0 l/m 6,8 km/h (2 Bft) 0 min 0 min 8,7 km/h (2 Bft)
18.06.2011 02:46 21,4 C 13,5 C 0,0 UV-I 0,0 C 57 % 90 % 0 % 1002,3 hPa 0,0 l/m 6,8 km/h (2 Bft) 0 min 0 min 12,6 km/h (3 Bft)
18.06.2011 02:48 21,4 C 13,4 C 0,0 UV-I 0,0 C 57 % 90 % 0 % 1002,3 hPa 0,0 l/m 8,0 km/h (2 Bft) 0 min 0 min 11,3 km/h (2 Bft)
18.06.2011 02:50 21,4 C 13,4 C 0,0 UV-I 0,0 C 57 % 91 % 0 % 1002,3 hPa 0,0 l/m 8,4 km/h (2 Bft) 0 min 0 min 12,2 km/h (2 Bft)
18.06.2011 02:52 21,4 C 13,5 C 0,0 UV-I 0,0 C 57 % 91 % 0 % 1002,3 hPa 0,0 l/m 8,4 km/h (2 Bft) 0 min 0 min 8,4 km/h (2 Bft)
18.06.2011 02:54 21,4 C 13,5 C 0,1 UV-I 0,0 C 57 % 91 % 0 % 1002,3 hPa 0,0 l/m 8,8 km/h (2 Bft) 0 min 0 min 12,6 km/h (3 Bft)
18.06.2011 02:56 21,4 C 13,5 C 0,1 UV-I 0,0 C 57 % 91 % 0 % 1002,3 hPa 0,0 l/m 9,2 km/h (2 Bft) 0 min 0 min 8,4 km/h (2 Bft)
18.06.2011 02:58 21,5 C 13,5 C 0,1 UV-I 0,0 C 57 % 91 % 0 % 1002,3 hPa 0,0 l/m 9,2 km/h (2 Bft) 0 min 0 min 10,6 km/h (2 Bft)
18.06.2011 03:00 21,4 C 13,5 C 0,1 UV-I 0,0 C 57 % 91 % 0 % 1002,3 hPa 0,0 l/m 9,2 km/h (2 Bft) 0 min 0 min 10,6 km/h (2 Bft)
18.06.2011 03:02 21,4 C 13,5 C 0,1 UV-I 0,0 C 57 % 91 % 0 % 1002,3 hPa 0,0 l/m 8,4 km/h (2 Bft) 0 min 0 min 3,5 km/h (1 Bft)
18.06.2011 03:04 21,5 C 13,5 C 0,1 UV-I 0,0 C 57 % 91 % 0 % 1002,3 hPa 0,0 l/m 8,4 km/h (2 Bft) 0 min 0 min 8,4 km/h (2 Bft)
18.06.2011 03:06 21,5 C 13,6 C 0,1 UV-I 0,0 C 57 % 91 % 0 % 1001,9 hPa 0,0 l/m 8,0 km/h (2 Bft) 0 min 0 min 7,4 km/h (2 Bft)
18.06.2011 03:08 21,5 C 13,6 C 0,1 UV-I 0,0 C 57 % 91 % 0 % 1001,9 hPa 0,0 l/m 7,6 km/h (2 Bft) 0 min 0 min 12,6 km/h (3 Bft)
18.06.2011 03:10 21,5 C 13,6 C 0,0 UV-I 0,0 C 57 % 91 % 0 % 1001,9 hPa 0,0 l/m 6,8 km/h (2 Bft) 0 min 0 min 14,5 km/h (3 Bft)
18.06.2011 03:12 21,5 C 13,6 C 0,0 UV-I 0,0 C 57 % 91 % 0 % 1001,9 hPa 0,0 l/m 7,2 km/h (2 Bft) 0 min 0 min 8,7 km/h (2 Bft)
18.06.2011 03:14 21,5 C 13,6 C 0,0 UV-I 0,0 C 57 % 91 % 0 % 1001,9 hPa 0,0 l/m 7,6 km/h (2 Bft) 0 min 0 min 5,1 km/h (1 Bft)
18.06.2011 03:16 21,5 C 13,6 C 0,0 UV-I 0,0 C 57 % 91 % 0 % 1001,9 hPa 0,0 l/m 7,6 km/h (2 Bft) 0 min 0 min 15,4 km/h (3 Bft)
18.06.2011 03:18 21,5 C 13,6 C 0,0 UV-I 0,0 C 57 % 91 % 0 % 1001,9 hPa 0,0 l/m 7,6 km/h (2 Bft) 0 min 0 min 6,8 km/h (2 Bft)
18.06.2011 03:20 21,5 C 13,6 C 0,0 UV-I 0,0 C 57 % 91 % 0 % 1001,9 hPa 0,0 l/m 7,6 km/h (2 Bft) 0 min 0 min 3,2 km/h (1 Bft)
18.06.2011 03:22 21,5 C 13,6 C 0,0 UV-I 0,0 C 57 % 91 % 0 % 1001,9 hPa 0,0 l/m 6,0 km/h (2 Bft) 0 min 0 min 5,8 km/h (2 Bft)
18.06.2011 03:24 21,5 C 13,7 C 0,0 UV-I 0,0 C 57 % 91 % 0 % 1001,9 hPa 0,0 l/m 5,6 km/h (1 Bft) 0 min 0 min 5,1 km/h (1 Bft)
18.06.2011 03:26 21,5 C 13,6 C 0,0 UV-I 0,0 C 57 % 91 % 0 % 1002,1 hPa 0,0 l/m 5,2 km/h (1 Bft) 0 min 0 min 3,2 km/h (1 Bft)
18.06.2011 03:28 21,5 C 13,6 C 0,0 UV-I 0,0 C 57 % 91 % 0 % 1002,1 hPa 0,0 l/m 3,6 km/h (1 Bft) 0 min 0 min 3,2 km/h (1 Bft)
18.06.2011 03:30 21,5 C 13,6 C 0,0 UV-I 0,0 C 57 % 91 % 0 % 1002,1 hPa 0,0 l/m 3,2 km/h (1 Bft) 0 min 0 min 7,1 km/h (2 Bft)
18.06.2011 03:32 21,5 C 13,6 C 0,0 UV-I 0,0 C 57 % 91 % 0 % 1002,1 hPa 0,0 l/m 2,8 km/h (1 Bft) 0 min 0 min 5,1 km/h (1 Bft)
18.06.2011 03:34 21,5 C 13,6 C 0,0 UV-I 0,0 C 57 % 91 % 0 % 1002,1 hPa 0,0 l/m 3,2 km/h (1 Bft) 0 min 0 min 8,4 km/h (2 Bft)
18.06.2011 03:36 21,5 C 13,6 C 0,0 UV-I 0,0 C 58 % 91 % 0 % 1002,1 hPa 0,0 l/m 2,8 km/h (1 Bft) 0 min 0 min 6,8 km/h (2 Bft)
18.06.2011 03:38 21,5 C 13,6 C 0,0 UV-I 0,0 C 58 % 91 % 0 % 1002,1 hPa 0,0 l/m 3,6 km/h (1 Bft) 0 min 0 min 4,2 km/h (1 Bft)
18.06.2011 03:40 21,4 C 13,6 C 0,0 UV-I 0,0 C 58 % 91 % 0 % 1002,1 hPa 0,0 l/m 4,4 km/h (1 Bft) 0 min 0 min 9,0 km/h (2 Bft)
18.06.2011 03:42 21,5 C 13,6 C 0,0 UV-I 0,0 C 58 % 91 % 0 % 1002,1 hPa 0,0 l/m 4,4 km/h (1 Bft) 0 min 0 min 0,0 km/h (0 Bft)
18.06.2011 03:44 21,5 C 13,6 C 0,0 UV-I 0,0 C 58 % 91 % 0 % 1002,1 hPa 0,0 l/m 4,4 km/h (1 Bft) 0 min 0 min 3,2 km/h (1 Bft)
18.06.2011 03:46 21,5 C 13,6 C 0,0 UV-I 0,0 C 58 % 91 % 0 % 1001,8 hPa 0,0 l/m 4,0 km/h (1 Bft) 0 min 0 min 6,4 km/h (2 Bft)
18.06.2011 03:48 21,5 C 13,7 C 0,0 UV-I 0,0 C 58 % 91 % 0 % 1001,8 hPa 0,0 l/m 4,8 km/h (1 Bft) 0 min 0 min 9,0 km/h (2 Bft)
18.06.2011 03:50 21,5 C 13,7 C 0,0 UV-I 0,0 C 58 % 91 % 0 % 1001,8 hPa 0,0 l/m 4,8 km/h (1 Bft) 0 min 0 min 6,1 km/h (2 Bft)
18.06.2011 03:52 21,4 C 13,7 C 0,0 UV-I 0,0 C 58 % 91 % 0 % 1001,8 hPa 0,0 l/m 4,4 km/h (1 Bft) 0 min 0 min 3,2 km/h (1 Bft)
18.06.2011 03:54 21,4 C 13,7 C 0,0 UV-I 0,0 C 58 % 91 % 0 % 1001,8 hPa 0,0 l/m 4,4 km/h (1 Bft) 0 min 0 min 4,5 km/h (1 Bft)
18.06.2011 03:56 21,4 C 13,7 C 0,0 UV-I 0,0 C 58 % 91 % 0 % 1001,8 hPa 0,0 l/m 6,4 km/h (2 Bft) 0 min 0 min 6,8 km/h (2 Bft)
18.06.2011 03:58 21,4 C 13,7 C 0,0 UV-I 0,0 C 58 % 91 % 0 % 1001,8 hPa 0,0 l/m 5,6 km/h (1 Bft) 0 min 0 min 0,0 km/h (0 Bft)
18.06.2011 04:00 21,4 C 13,7 C 0,0 UV-I 0,0 C 58 % 91 % 0 % 1001,8 hPa 0,0 l/m 4,0 km/h (1 Bft) 0 min 0 min 5,8 km/h (2 Bft)
18.06.2011 04:02 21,4 C 13,7 C 0,0 UV-I 0,0 C 58 % 91 % 0 % 1001,8 hPa 0,0 l/m 4,0 km/h (1 Bft) 0 min 0 min 0,0 km/h (0 Bft)
18.06.2011 04:04 21,4 C 13,8 C 0,0 UV-I 0,0 C 58 % 91 % 0 % 1001,8 hPa 0,0 l/m 5,2 km/h (1 Bft) 0 min 0 min 13,8 km/h (3 Bft)
18.06.2011 04:06 21,4 C 13,9 C 0,0 UV-I 0,0 C 58 % 91 % 0 % 1001,6 hPa 0,0 l/m 3,6 km/h (1 Bft) 0 min 0 min 0,0 km/h (0 Bft)
18.06.2011 04:08 21,4 C 13,9 C 0,0 UV-I 0,0 C 58 % 91 % 0 % 1001,6 hPa 0,0 l/m 3,2 km/h (1 Bft) 0 min 0 min 0,0 km/h (0 Bft)
18.06.2011 04:10 21,4 C 13,9 C 0,0 UV-I 0,0 C 58 % 91 % 0 % 1001,6 hPa 0,0 l/m 3,6 km/h (1 Bft) 0 min 0 min 3,5 km/h (1 Bft)
18.06.2011 04:12 21,4 C 13,9 C 0,0 UV-I 0,0 C 58 % 91 % 0 % 1001,6 hPa 0,0 l/m 3,2 km/h (1 Bft) 0 min 0 min 4,2 km/h (1 Bft)
18.06.2011 04:14 21,4 C 13,9 C 0,0 UV-I 0,0 C 58 % 91 % 0 % 1001,6 hPa 0,0 l/m 2,4 km/h (1 Bft) 0 min 0 min 4,5 km/h (1 Bft)
18.06.2011 04:16 21,4 C 13,8 C 0,0 UV-I 0,0 C 58 % 91 % 0 % 1001,6 hPa 0,0 l/m 2,0 km/h (1 Bft) 0 min 0 min 6,1 km/h (2 Bft)
18.06.2011 04:18 21,4 C 13,8 C 0,0 UV-I 0,0 C 58 % 91 % 0 % 1001,6 hPa 0,0 l/m 2,4 km/h (1 Bft) 0 min 0 min 7,7 km/h (2 Bft)
18.06.2011 04:20 21,4 C 13,9 C 0,0 UV-I 0,0 C 58 % 91 % 0 % 1001,6 hPa 0,0 l/m 3,2 km/h (1 Bft) 0 min 0 min 11,3 km/h (2 Bft)
18.06.2011 04:22 21,2 C 13,9 C 0,0 UV-I 0,0 C 58 % 91 % 0 % 1001,6 hPa 0,0 l/m 3,6 km/h (1 Bft) 0 min 0 min 5,5 km/h (1 Bft)
18.06.2011 04:24 21,4 C 13,9 C 0,0 UV-I 0,0 C 58 % 91 % 0 % 1001,6 hPa 0,0 l/m 4,8 km/h (1 Bft) 0 min 0 min 9,3 km/h (2 Bft)
18.06.2011 04:26 21,2 C 13,9 C 0,0 UV-I 0,0 C 58 % 91 % 0 % 1001,7 hPa 0,0 l/m 4,4 km/h (1 Bft) 0 min 0 min 0,0 km/h (0 Bft)
18.06.2011 04:28 21,2 C 13,9 C 0,0 UV-I 0,0 C 58 % 91 % 0 % 1001,7 hPa 0,0 l/m 4,4 km/h (1 Bft) 0 min 0 min 0,0 km/h (0 Bft)
18.06.2011 04:30 21,2 C 13,9 C 0,0 UV-I 0,0 C 58 % 91 % 0 % 1001,7 hPa 0,0 l/m 4,0 km/h (1 Bft) 0 min 0 min 0,0 km/h (0 Bft)
18.06.2011 04:32 21,2 C 14,0 C 0,0 UV-I 0,0 C 58 % 91 % 0 % 1001,7 hPa 0,0 l/m 2,8 km/h (1 Bft) 0 min 0 min 0,0 km/h (0 Bft)
18.06.2011 04:34 21,2 C 14,0 C 0,0 UV-I 0,0 C 58 % 91 % 0 % 1001,7 hPa 0,0 l/m 3,2 km/h (1 Bft) 0 min 0 min 5,1 km/h (1 Bft)
18.06.2011 04:36 21,2 C 14,0 C 0,0 UV-I 0,0 C 58 % 91 % 0 % 1001,7 hPa 0,0 l/m 2,0 km/h (1 Bft) 0 min 0 min 0,0 km/h (0 Bft)
18.06.2011 04:38 21,3 C 14,1 C 0,0 UV-I 0,0 C 58 % 91 % 0 % 1001,7 hPa 0,0 l/m 2,0 km/h (1 Bft) 0 min 0 min 0,0 km/h (0 Bft)
18.06.2011 04:40 21,2 C 14,1 C 0,0 UV-I 0,0 C 58 % 91 % 0 % 1001,7 hPa 0,0 l/m 2,0 km/h (1 Bft) 0 min 0 min 6,4 km/h (2 Bft)
18.06.2011 04:42 21,2 C 14,0 C 0,0 UV-I 0,0 C 58 % 91 % 0 % 1001,7 hPa 0,0 l/m 2,0 km/h (1 Bft) 0 min 0 min 0,0 km/h (0 Bft)
18.06.2011 04:44 21,2 C 14,0 C 0,0 UV-I 0,0 C 58 % 91 % 0 % 1001,7 hPa 0,0 l/m 1,6 km/h (1 Bft) 0 min 0 min 6,1 km/h (2 Bft)
18.06.2011 04:46 21,2 C 14,1 C 0,0 UV-I 0,0 C 58 % 91 % 0 % 1001,4 hPa 0,0 l/m 2,0 km/h (1 Bft) 0 min 0 min 3,5 km/h (1 Bft)
18.06.2011 04:48 21,2 C 14,1 C 0,0 UV-I 0,0 C 58 % 91 % 0 % 1001,4 hPa 0,0 l/m 2,0 km/h (1 Bft) 0 min 0 min 0,0 km/h (0 Bft)
18.06.2011 04:50 21,2 C 14,1 C 0,0 UV-I 0,0 C 58 % 91 % 0 % 1001,4 hPa 0,0 l/m 2,8 km/h (1 Bft) 0 min 0 min 0,0 km/h (0 Bft)
18.06.2011 04:52 21,2 C 14,2 C 0,0 UV-I 0,0 C 58 % 91 % 0 % 1001,4 hPa 0,0 l/m 2,4 km/h (1 Bft) 0 min 0 min 3,5 km/h (1 Bft)
18.06.2011 04:54 21,3 C 14,3 C 0,0 UV-I 0,0 C 58 % 91 % 0 % 1001,4 hPa 0,0 l/m 2,8 km/h (1 Bft) 0 min 0 min 8,4 km/h (2 Bft)
18.06.2011 04:56 21,2 C 14,2 C 0,0 UV-I 0,0 C 58 % 91 % 0 % 1001,4 hPa 0,0 l/m 3,2 km/h (1 Bft) 0 min 0 min 4,8 km/h (1 Bft)
18.06.2011 04:58 21,2 C 14,3 C 0,0 UV-I 0,0 C 58 % 91 % 0 % 1001,4 hPa 0,0 l/m 2,8 km/h (1 Bft) 0 min 0 min 3,2 km/h (1 Bft)
18.06.2011 05:00 21,2 C 14,4 C 0,0 UV-I 0,0 C 58 % 91 % 0 % 1001,4 hPa 0,0 l/m 3,2 km/h (1 Bft) 0 min 0 min 5,1 km/h (1 Bft)
18.06.2011 05:02 21,2 C 14,4 C 0,0 UV-I 0,0 C 58 % 91 % 0 % 1001,4 hPa 0,0 l/m 3,6 km/h (1 Bft) 0 min 0 min 4,5 km/h (1 Bft)
18.06.2011 05:04 21,2 C 14,4 C 0,0 UV-I 0,0 C 58 % 91 % 0 % 1001,4 hPa 0,0 l/m 4,4 km/h (1 Bft) 0 min 0 min 7,7 km/h (2 Bft)
18.06.2011 05:06 21,4 C 14,5 C 0,0 UV-I 0,0 C 58 % 91 % 0 % 1002,1 hPa 0,0 l/m 3,6 km/h (1 Bft) 0 min 0 min 4,5 km/h (1 Bft)
18.06.2011 05:08 21,4 C 14,6 C 0,0 UV-I 0,0 C 58 % 91 % 0 % 1002,1 hPa 0,0 l/m 4,4 km/h (1 Bft) 0 min 0 min 8,4 km/h (2 Bft)
18.06.2011 05:10 21,4 C 14,7 C 0,0 UV-I 0,0 C 58 % 90 % 0 % 1002,1 hPa 0,0 l/m 5,2 km/h (1 Bft) 0 min 0 min 10,0 km/h (2 Bft)
18.06.2011 05:12 21,4 C 14,6 C 0,0 UV-I 0,0 C 58 % 90 % 0 % 1002,1 hPa 0,0 l/m 4,8 km/h (1 Bft) 0 min 2 min 3,2 km/h (1 Bft)
18.06.2011 05:14 21,4 C 14,7 C 0,0 UV-I 0,0 C 58 % 90 % 0 % 1002,1 hPa 0,0 l/m 4,4 km/h (1 Bft) 0 min 2 min 8,7 km/h (2 Bft)
18.06.2011 05:16 21,4 C 14,7 C 0,0 UV-I 0,0 C 58 % 90 % 0 % 1002,1 hPa 0,0 l/m 4,8 km/h (1 Bft) 0 min 2 min 12,9 km/h (3 Bft)
18.06.2011 05:18 21,4 C 14,6 C 0,0 UV-I 0,0 C 58 % 90 % 0 % 1002,1 hPa 0,0 l/m 4,4 km/h (1 Bft) 0 min 2 min 5,1 km/h (1 Bft)
18.06.2011 05:20 21,4 C 14,6 C 0,0 UV-I 0,0 C 58 % 90 % 0 % 1002,1 hPa 0,0 l/m 4,4 km/h (1 Bft) 0 min 2 min 0,0 km/h (0 Bft)
18.06.2011 05:22 21,4 C 14,6 C 0,0 UV-I 0,0 C 58 % 90 % 0 % 1002,1 hPa 0,0 l/m 4,0 km/h (1 Bft) 0 min 0 min 0,0 km/h (0 Bft)
18.06.2011 05:24 21,4 C 14,7 C 0,0 UV-I 0,0 C 58 % 90 % 0 % 1002,1 hPa 0,0 l/m 4,4 km/h (1 Bft) 0 min 0 min 4,5 km/h (1 Bft)
18.06.2011 05:26 21,4 C 14,6 C 0,0 UV-I 0,0 C 58 % 90 % 0 % 1001,8 hPa 0,0 l/m 4,8 km/h (1 Bft) 0 min 0 min 4,8 km/h (1 Bft)
18.06.2011 05:28 21,4 C 14,6 C 0,0 UV-I 0,0 C 58 % 90 % 0 % 1001,8 hPa 0,0 l/m 4,4 km/h (1 Bft) 0 min 0 min 3,9 km/h (1 Bft)
18.06.2011 05:30 21,4 C 14,7 C 0,0 UV-I 0,0 C 58 % 90 % 0 % 1001,8 hPa 0,0 l/m 3,2 km/h (1 Bft) 0 min 0 min 0,0 km/h (0 Bft)
18.06.2011 05:32 21,4 C 14,6 C 0,0 UV-I 0,0 C 58 % 90 % 0 % 1001,8 hPa 0,0 l/m 3,2 km/h (1 Bft) 0 min 0 min 3,5 km/h (1 Bft)
18.06.2011 05:34 21,4 C 14,7 C 0,0 UV-I 0,0 C 58 % 90 % 0 % 1001,8 hPa 0,0 l/m 2,8 km/h (1 Bft) 0 min 0 min 4,2 km/h (1 Bft)
18.06.2011 05:36 21,4 C 14,6 C 0,0 UV-I 0,0 C 58 % 90 % 0 % 1001,8 hPa 0,0 l/m 2,8 km/h (1 Bft) 0 min 0 min 5,1 km/h (1 Bft)
18.06.2011 05:38 21,4 C 14,6 C 0,0 UV-I 0,0 C 58 % 90 % 0 % 1001,8 hPa 0,0 l/m 2,4 km/h (1 Bft) 0 min 0 min 13,2 km/h (3 Bft)
18.06.2011 05:40 21,4 C 14,5 C 0,0 UV-I 0,0 C 58 % 89 % 0 % 1001,8 hPa 0,0 l/m 2,4 km/h (1 Bft) 0 min 0 min 0,0 km/h (0 Bft)
18.06.2011 05:42 21,4 C 14,6 C 0,0 UV-I 0,0 C 58 % 90 % 0 % 1001,8 hPa 0,0 l/m 3,2 km/h (1 Bft) 0 min 0 min 5,5 km/h (1 Bft)
18.06.2011 05:44 21,4 C 14,5 C 0,0 UV-I 0,0 C 58 % 89 % 0 % 1001,8 hPa 0,0 l/m 4,0 km/h (1 Bft) 0 min 0 min 7,1 km/h (2 Bft)
18.06.2011 05:46 21,4 C 14,7 C 0,0 UV-I 0,0 C 58 % 89 % 0 % 1001,9 hPa 0,0 l/m 4,4 km/h (1 Bft) 0 min 0 min 6,8 km/h (2 Bft)
18.06.2011 05:48 21,4 C 14,7 C 0,0 UV-I 0,0 C 58 % 89 % 0 % 1001,9 hPa 0,0 l/m 4,8 km/h (1 Bft) 0 min 0 min 16,1 km/h (3 Bft)
18.06.2011 05:50 21,4 C 14,7 C 0,1 UV-I 0,0 C 58 % 89 % 0 % 1001,9 hPa 0,0 l/m 4,8 km/h (1 Bft) 0 min 0 min 4,5 km/h (1 Bft)
18.06.2011 05:52 21,4 C 14,7 C 0,1 UV-I 0,0 C 58 % 89 % 0 % 1001,9 hPa 0,0 l/m 4,8 km/h (1 Bft) 0 min 0 min 3,2 km/h (1 Bft)
18.06.2011 05:54 21,4 C 14,6 C 0,0 UV-I 0,0 C 58 % 89 % 0 % 1001,9 hPa 0,0 l/m 4,8 km/h (1 Bft) 0 min 0 min 4,8 km/h (1 Bft)
18.06.2011 05:56 21,4 C 14,6 C 0,0 UV-I 0,0 C 58 % 89 % 0 % 1001,9 hPa 0,0 l/m 4,8 km/h (1 Bft) 0 min 0 min 16,1 km/h (3 Bft)
18.06.2011 05:58 21,4 C 14,6 C 0,0 UV-I 0,0 C 58 % 88 % 0 % 1001,9 hPa 0,0 l/m 4,8 km/h (1 Bft) 0 min 0 min 4,2 km/h (1 Bft)
18.06.2011 06:00 21,4 C 14,7 C 0,0 UV-I 0,0 C 58 % 88 % 0 % 1001,9 hPa 0,0 l/m 4,4 km/h (1 Bft) 0 min 0 min 3,5 km/h (1 Bft)
18.06.2011 06:02 21,4 C 14,7 C 0,0 UV-I 0,0 C 58 % 88 % 0 % 1001,9 hPa 0,0 l/m 4,0 km/h (1 Bft) 0 min 0 min 3,9 km/h (1 Bft)
18.06.2011 06:04 21,4 C 14,7 C 0,0 UV-I 0,0 C 58 % 88 % 0 % 1001,9 hPa 0,0 l/m 4,0 km/h (1 Bft) 0 min 0 min 6,1 km/h (2 Bft)
18.06.2011 06:06 21,4 C 14,7 C 0,0 UV-I 0,0 C 58 % 88 % 0 % 1002,0 hPa 0,0 l/m 4,0 km/h (1 Bft) 0 min 0 min 6,8 km/h (2 Bft)
18.06.2011 06:08 21,4 C 14,7 C 0,0 UV-I 0,0 C 58 % 88 % 0 % 1002,0 hPa 0,0 l/m 3,6 km/h (1 Bft) 0 min 0 min 4,5 km/h (1 Bft)
18.06.2011 06:10 21,4 C 14,8 C 0,0 UV-I 0,0 C 58 % 88 % 0 % 1002,0 hPa 0,0 l/m 4,4 km/h (1 Bft) 0 min 0 min 7,1 km/h (2 Bft)
18.06.2011 06:12 21,4 C 14,8 C 0,0 UV-I 0,0 C 58 % 88 % 0 % 1002,0 hPa 0,0 l/m 4,8 km/h (1 Bft) 0 min 0 min 4,5 km/h (1 Bft)
18.06.2011 06:14 21,4 C 14,9 C 0,0 UV-I 0,0 C 58 % 87 % 0 % 1002,0 hPa 0,0 l/m 6,0 km/h (2 Bft) 0 min 0 min 10,0 km/h (2 Bft)
18.06.2011 06:16 21,4 C 14,8 C 0,0 UV-I 0,0 C 58 % 87 % 0 % 1002,0 hPa 0,0 l/m 6,4 km/h (2 Bft) 0 min 0 min 16,4 km/h (3 Bft)
18.06.2011 06:18 21,4 C 14,9 C 0,0 UV-I 0,0 C 58 % 87 % 0 % 1002,0 hPa 0,0 l/m 7,2 km/h (2 Bft) 0 min 0 min 13,5 km/h (3 Bft)
18.06.2011 06:20 21,4 C 14,9 C 0,0 UV-I 0,0 C 58 % 87 % 0 % 1002,0 hPa 0,0 l/m 7,6 km/h (2 Bft) 0 min 0 min 16,7 km/h (3 Bft)
18.06.2011 06:22 21,4 C 14,8 C 0,0 UV-I 0,0 C 58 % 87 % 0 % 1002,0 hPa 0,0 l/m 8,0 km/h (2 Bft) 0 min 0 min 7,1 km/h (2 Bft)
18.06.2011 06:24 21,4 C 14,8 C 0,0 UV-I 0,0 C 58 % 87 % 0 % 1002,0 hPa 0,0 l/m 7,6 km/h (2 Bft) 0 min 0 min 12,2 km/h (2 Bft)
18.06.2011 06:26 21,4 C 14,8 C 0,0 UV-I 0,0 C 58 % 86 % 0 % 1001,9 hPa 0,0 l/m 7,2 km/h (2 Bft) 0 min 0 min 18,0 km/h (3 Bft)
18.06.2011 06:28 21,4 C 14,8 C 0,0 UV-I 0,0 C 58 % 86 % 0 % 1001,9 hPa 0,0 l/m 7,2 km/h (2 Bft) 0 min 0 min 7,7 km/h (2 Bft)
18.06.2011 06:30 21,4 C 14,8 C 0,0 UV-I 0,0 C 57 % 86 % 0 % 1001,9 hPa 0,0 l/m 6,0 km/h (2 Bft) 0 min 0 min 5,8 km/h (2 Bft)
18.06.2011 06:32 21,4 C 14,8 C 0,0 UV-I 0,0 C 57 % 86 % 0 % 1001,9 hPa 0,0 l/m 4,8 km/h (1 Bft) 0 min 0 min 5,8 km/h (2 Bft)
18.06.2011 06:34 21,4 C 14,9 C 0,0 UV-I 0,0 C 57 % 86 % 0 % 1001,9 hPa 0,0 l/m 4,8 km/h (1 Bft) 0 min 0 min 4,2 km/h (1 Bft)
18.06.2011 06:36 21,4 C 14,8 C 0,0 UV-I 0,0 C 57 % 86 % 0 % 1001,9 hPa 0,0 l/m 3,6 km/h (1 Bft) 0 min 0 min 4,5 km/h (1 Bft)
18.06.2011 06:38 21,4 C 14,8 C 0,0 UV-I 0,0 C 57 % 86 % 0 % 1001,9 hPa 0,0 l/m 2,8 km/h (1 Bft) 0 min 0 min 0,0 km/h (0 Bft)
18.06.2011 06:40 21,4 C 14,9 C 0,0 UV-I 0,0 C 57 % 86 % 0 % 1001,9 hPa 0,0 l/m 2,4 km/h (1 Bft) 0 min 0 min 3,9 km/h (1 Bft)
18.06.2011 06:42 21,4 C 14,8 C 0,0 UV-I 0,0 C 57 % 86 % 0 % 1001,9 hPa 0,0 l/m 2,0 km/h (1 Bft) 0 min 0 min 5,8 km/h (2 Bft)
18.06.2011 06:44 21,4 C 14,8 C 0,0 UV-I 0,0 C 57 % 86 % 0 % 1001,9 hPa 0,0 l/m 1,6 km/h (1 Bft) 0 min 0 min 0,0 km/h (0 Bft)
18.06.2011 06:46 21,4 C 14,8 C 0,0 UV-I 0,0 C 57 % 86 % 0 % 1002,2 hPa 0,0 l/m 2,8 km/h (1 Bft) 0 min 0 min 4,5 km/h (1 Bft)
18.06.2011 06:48 21,4 C 14,8 C 0,0 UV-I 0,0 C 57 % 86 % 0 % 1002,2 hPa 0,0 l/m 2,8 km/h (1 Bft) 0 min 0 min 0,0 km/h (0 Bft)
18.06.2011 06:50 21,4 C 14,9 C 0,0 UV-I 0,0 C 57 % 86 % 0 % 1002,2 hPa 0,0 l/m 3,2 km/h (1 Bft) 0 min 0 min 3,9 km/h (1 Bft)
18.06.2011 06:52 21,4 C 14,8 C 0,0 UV-I 0,0 C 57 % 86 % 0 % 1002,2 hPa 0,0 l/m 3,2 km/h (1 Bft) 0 min 0 min 4,5 km/h (1 Bft)
18.06.2011 06:54 21,4 C 14,9 C 0,2 UV-I 0,0 C 57 % 86 % 0 % 1002,2 hPa 0,0 l/m 3,2 km/h (1 Bft) 0 min 0 min 10,9 km/h (2 Bft)
18.06.2011 06:56 21,4 C 14,9 C 0,2 UV-I 0,0 C 57 % 85 % 0 % 1002,2 hPa 0,0 l/m 3,2 km/h (1 Bft) 0 min 0 min 7,7 km/h (2 Bft)
18.06.2011 06:58 21,4 C 14,9 C 0,2 UV-I 0,0 C 57 % 85 % 0 % 1002,2 hPa 0,0 l/m 3,2 km/h (1 Bft) 0 min 0 min 4,8 km/h (1 Bft)
18.06.2011 07:00 21,4 C 15,0 C 0,3 UV-I 0,0 C 57 % 85 % 0 % 1002,2 hPa 0,0 l/m 3,6 km/h (1 Bft) 0 min 0 min 4,5 km/h (1 Bft)
18.06.2011 07:02 21,4 C 15,1 C 0,3 UV-I 0,0 C 57 % 85 % 0 % 1002,2 hPa 0,0 l/m 3,6 km/h (1 Bft) 0 min 0 min 4,2 km/h (1 Bft)
18.06.2011 07:04 21,4 C 15,0 C 0,0 UV-I 0,0 C 57 % 85 % 0 % 1002,2 hPa 0,0 l/m 4,4 km/h (1 Bft) 0 min 0 min 5,8 km/h (2 Bft)
18.06.2011 07:06 21,4 C 15,1 C 0,0 UV-I 0,0 C 57 % 85 % 0 % 1002,6 hPa 0,0 l/m 5,6 km/h (1 Bft) 0 min 0 min 7,1 km/h (2 Bft)
18.06.2011 07:08 21,4 C 15,1 C 0,0 UV-I 0,1 C 57 % 85 % 3 % 1002,6 hPa 0,0 l/m 5,2 km/h (1 Bft) 0 min 0 min 3,2 km/h (1 Bft)
18.06.2011 07:10 21,4 C 15,1 C 0,3 UV-I 0,1 C 57 % 85 % 3 % 1002,6 hPa 0,0 l/m 4,0 km/h (1 Bft) 0 min 0 min 0,0 km/h (0 Bft)
18.06.2011 07:12 21,4 C 15,1 C 0,3 UV-I 0,1 C 57 % 85 % 3 % 1002,6 hPa 0,0 l/m 3,2 km/h (1 Bft) 0 min 0 min 3,5 km/h (1 Bft)
18.06.2011 07:14 21,4 C 15,1 C 0,4 UV-I 0,1 C 57 % 84 % 3 % 1002,6 hPa 0,0 l/m 2,8 km/h (1 Bft) 0 min 0 min 9,7 km/h (2 Bft)
18.06.2011 07:16 21,4 C 15,1 C 0,4 UV-I 0,1 C 57 % 84 % 3 % 1002,6 hPa 0,0 l/m 2,8 km/h (1 Bft) 0 min 0 min 9,0 km/h (2 Bft)
18.06.2011 07:18 21,4 C 15,1 C 0,4 UV-I 0,0 C 57 % 84 % 0 % 1002,6 hPa 0,0 l/m 3,2 km/h (1 Bft) 0 min 0 min 7,7 km/h (2 Bft)
18.06.2011 07:20 21,4 C 15,2 C 0,4 UV-I 0,0 C 57 % 84 % 0 % 1002,6 hPa 0,0 l/m 3,6 km/h (1 Bft) 0 min 0 min 4,5 km/h (1 Bft)
18.06.2011 07:22 21,4 C 15,1 C 0,4 UV-I 0,1 C 57 % 84 % 3 % 1002,6 hPa 0,0 l/m 4,0 km/h (1 Bft) 0 min 0 min 9,3 km/h (2 Bft)
18.06.2011 07:24 21,4 C 15,2 C 0,2 UV-I 0,0 C 57 % 84 % 0 % 1002,6 hPa 0,0 l/m 4,4 km/h (1 Bft) 0 min 0 min 11,3 km/h (2 Bft)
18.06.2011 07:26 21,4 C 15,2 C 0,2 UV-I 0,0 C 57 % 84 % 0 % 1002,5 hPa 0,0 l/m 4,8 km/h (1 Bft) 0 min 0 min 7,1 km/h (2 Bft)
18.06.2011 07:28 21,4 C 15,2 C 0,2 UV-I 0,0 C 57 % 84 % 0 % 1002,5 hPa 0,0 l/m 3,2 km/h (1 Bft) 0 min 0 min 0,0 km/h (0 Bft)
18.06.2011 07:30 21,4 C 15,3 C 0,3 UV-I 0,0 C 57 % 84 % 0 % 1002,5 hPa 0,0 l/m 3,6 km/h (1 Bft) 0 min 0 min 8,7 km/h (2 Bft)
18.06.2011 07:32 21,4 C 15,2 C 0,3 UV-I 0,0 C 57 % 84 % 0 % 1002,5 hPa 0,0 l/m 4,0 km/h (1 Bft) 0 min 0 min 4,5 km/h (1 Bft)
18.06.2011 07:34 21,4 C 15,3 C 0,3 UV-I 0,0 C 57 % 83 % 0 % 1002,5 hPa 0,0 l/m 4,8 km/h (1 Bft) 0 min 0 min 7,7 km/h (2 Bft)
18.06.2011 07:36 21,4 C 15,2 C 0,3 UV-I 0,0 C 57 % 83 % 0 % 1002,5 hPa 0,0 l/m 4,8 km/h (1 Bft) 0 min 0 min 0,0 km/h (0 Bft)
18.06.2011 07:38 21,4 C 15,2 C 0,3 UV-I 0,1 C 57 % 83 % 3 % 1002,5 hPa 0,0 l/m 5,2 km/h (1 Bft) 0 min 0 min 9,0 km/h (2 Bft)
18.06.2011 07:40 21,4 C 15,2 C 0,3 UV-I 0,1 C 57 % 83 % 3 % 1002,5 hPa 0,0 l/m 5,2 km/h (1 Bft) 0 min 0 min 3,5 km/h (1 Bft)
18.06.2011 07:42 21,5 C 15,2 C 0,3 UV-I 0,1 C 57 % 83 % 3 % 1002,5 hPa 0,0 l/m 4,0 km/h (1 Bft) 0 min 0 min 0,0 km/h (0 Bft)
18.06.2011 07:44 21,4 C 15,2 C 0,3 UV-I 0,1 C 57 % 83 % 3 % 1002,5 hPa 0,0 l/m 4,0 km/h (1 Bft) 0 min 0 min 6,8 km/h (2 Bft)
18.06.2011 07:46 21,4 C 15,2 C 0,3 UV-I 0,1 C 57 % 83 % 3 % 1002,7 hPa 0,0 l/m 4,0 km/h (1 Bft) 0 min 2 min 12,6 km/h (3 Bft)
18.06.2011 07:48 21,4 C 15,2 C 0,3 UV-I 0,0 C 57 % 83 % 0 % 1002,7 hPa 0,0 l/m 3,6 km/h (1 Bft) 0 min 2 min 0,0 km/h (0 Bft)
18.06.2011 07:50 21,5 C 15,2 C 0,4 UV-I 0,0 C 57 % 83 % 0 % 1002,7 hPa 0,0 l/m 4,8 km/h (1 Bft) 0 min 2 min 17,4 km/h (3 Bft)
18.06.2011 07:52 21,4 C 15,2 C 0,4 UV-I 0,0 C 57 % 83 % 0 % 1002,7 hPa 0,0 l/m 5,2 km/h (1 Bft) 0 min 2 min 9,0 km/h (2 Bft)
18.06.2011 07:54 21,5 C 15,2 C 0,1 UV-I 0,0 C 57 % 83 % 0 % 1002,7 hPa 0,0 l/m 5,6 km/h (1 Bft) 0 min 2 min 5,8 km/h (2 Bft)
18.06.2011 07:56 21,4 C 15,2 C 0,1 UV-I 0,0 C 57 % 84 % 0 % 1002,7 hPa 0,0 l/m 6,4 km/h (2 Bft) 0 min 2 min 8,7 km/h (2 Bft)
18.06.2011 07:58 21,4 C 15,1 C 0,1 UV-I 0,0 C 57 % 84 % 0 % 1002,7 hPa 0,3 l/m 7,6 km/h (2 Bft) 0 min 2 min 9,0 km/h (2 Bft)
18.06.2011 08:00 21,4 C 14,9 C 0,2 UV-I 0,0 C 57 % 84 % 0 % 1002,7 hPa 0,0 l/m 8,0 km/h (2 Bft) 0 min 2 min 8,7 km/h (2 Bft)
18.06.2011 08:02 21,5 C 14,8 C 0,2 UV-I 0,0 C 57 % 85 % 0 % 1002,7 hPa 0,0 l/m 7,2 km/h (2 Bft) 0 min 2 min 7,7 km/h (2 Bft)
18.06.2011 08:04 21,4 C 14,6 C 0,3 UV-I 0,0 C 57 % 86 % 0 % 1002,7 hPa 0,3 l/m 7,6 km/h (2 Bft) 0 min 2 min 10,9 km/h (2 Bft)
18.06.2011 08:06 21,4 C 14,7 C 0,3 UV-I 0,0 C 57 % 86 % 0 % 1002,9 hPa 0,1 l/m 7,2 km/h (2 Bft) 0 min 2 min 3,9 km/h (1 Bft)
18.06.2011 08:08 21,4 C 14,5 C 0,3 UV-I 0,0 C 57 % 86 % 0 % 1002,9 hPa 0,0 l/m 6,0 km/h (2 Bft) 0 min 0 min 5,5 km/h (1 Bft)
18.06.2011 08:10 21,4 C 14,5 C 0,8 UV-I 0,0 C 57 % 86 % 0 % 1002,9 hPa 0,0 l/m 4,8 km/h (1 Bft) 0 min 0 min 4,5 km/h (1 Bft)
18.06.2011 08:12 21,4 C 14,4 C 0,8 UV-I 0,0 C 57 % 86 % 0 % 1002,9 hPa 0,0 l/m 4,0 km/h (1 Bft) 0 min 0 min 3,2 km/h (1 Bft)
18.06.2011 08:14 21,4 C 14,5 C 1,2 UV-I 0,0 C 57 % 87 % 0 % 1002,9 hPa 0,0 l/m 3,2 km/h (1 Bft) 0 min 0 min 0,0 km/h (0 Bft)
18.06.2011 08:16 21,4 C 14,4 C 1,2 UV-I 0,0 C 58 % 87 % 0 % 1002,9 hPa 0,0 l/m 3,2 km/h (1 Bft) 0 min 0 min 7,4 km/h (2 Bft)
18.06.2011 08:18 21,5 C 14,5 C 1,2 UV-I 0,0 C 58 % 87 % 0 % 1002,9 hPa 0,0 l/m 3,6 km/h (1 Bft) 0 min 0 min 6,1 km/h (2 Bft)
18.06.2011 08:20 21,4 C 14,5 C 1,6 UV-I 0,0 C 58 % 87 % 0 % 1002,9 hPa 0,0 l/m 4,8 km/h (1 Bft) 0 min 0 min 10,9 km/h (2 Bft)
18.06.2011 08:22 21,4 C 14,5 C 1,6 UV-I 0,0 C 58 % 87 % 0 % 1002,9 hPa 0,0 l/m 6,0 km/h (2 Bft) 0 min 0 min 10,9 km/h (2 Bft)
18.06.2011 08:24 21,5 C 14,4 C 1,0 UV-I 0,0 C 58 % 87 % 0 % 1002,9 hPa 0,1 l/m 6,8 km/h (2 Bft) 0 min 0 min 3,9 km/h (1 Bft)
18.06.2011 08:26 21,5 C 14,4 C 1,0 UV-I 0,0 C 58 % 87 % 0 % 1003,0 hPa 0,0 l/m 8,0 km/h (2 Bft) 0 min 0 min 9,3 km/h (2 Bft)
18.06.2011 08:28 21,4 C 14,5 C 1,0 UV-I 0,0 C 58 % 87 % 0 % 1003,0 hPa 0,0 l/m 8,0 km/h (2 Bft) 0 min 0 min 9,7 km/h (2 Bft)
18.06.2011 08:30 21,5 C 14,4 C 1,3 UV-I 0,1 C 58 % 87 % 3 % 1003,0 hPa 0,0 l/m 8,8 km/h (2 Bft) 0 min 0 min 17,1 km/h (3 Bft)
18.06.2011 08:32 21,5 C 14,5 C 1,3 UV-I 0,1 C 58 % 87 % 3 % 1003,0 hPa 0,0 l/m 9,2 km/h (2 Bft) 0 min 2 min 10,0 km/h (2 Bft)
18.06.2011 08:34 21,5 C 14,5 C 1,4 UV-I 0,1 C 58 % 87 % 3 % 1003,0 hPa 0,0 l/m 9,2 km/h (2 Bft) 0 min 2 min 10,0 km/h (2 Bft)
18.06.2011 08:36 21,5 C 14,4 C 1,4 UV-I 0,1 C 58 % 87 % 3 % 1003,0 hPa 0,0 l/m 9,2 km/h (2 Bft) 0 min 0 min 11,9 km/h (2 Bft)
18.06.2011 08:38 21,5 C 14,4 C 1,4 UV-I 0,0 C 58 % 87 % 0 % 1003,0 hPa 0,0 l/m 8,8 km/h (2 Bft) 0 min 0 min 8,7 km/h (2 Bft)
18.06.2011 08:40 21,4 C 14,4 C 1,8 UV-I 0,0 C 58 % 86 % 0 % 1003,0 hPa 0,0 l/m 8,8 km/h (2 Bft) 0 min 0 min 4,2 km/h (1 Bft)
18.06.2011 08:42 21,4 C 14,4 C 1,8 UV-I 0,8 C 58 % 86 % 23 % 1003,0 hPa 0,0 l/m 8,8 km/h (2 Bft) 0 min 0 min 7,4 km/h (2 Bft)
18.06.2011 08:44 21,4 C 14,5 C 5,6 UV-I 1,3 C 58 % 87 % 37 % 1003,0 hPa 0,0 l/m 8,4 km/h (2 Bft) 0 min 0 min 5,5 km/h (1 Bft)
18.06.2011 08:46 21,4 C 14,7 C 5,6 UV-I 1,8 C 58 % 87 % 51 % 1003,0 hPa 0,0 l/m 8,4 km/h (2 Bft) 0 min 0 min 20,0 km/h (4 Bft)
18.06.2011 08:48 21,4 C 14,7 C 5,6 UV-I 2,8 C 58 % 87 % 80 % 1003,0 hPa 0,0 l/m 8,4 km/h (2 Bft) 0 min 0 min 7,1 km/h (2 Bft)
18.06.2011 08:50 21,4 C 14,7 C 5,9 UV-I 3,2 C 58 % 87 % 91 % 1003,0 hPa 0,0 l/m 8,8 km/h (2 Bft) 2 min 0 min 24,8 km/h (4 Bft)
18.06.2011 08:52 21,4 C 14,8 C 5,9 UV-I 3,3 C 58 % 85 % 94 % 1003,0 hPa 0,0 l/m 10,0 km/h (2 Bft) 2 min 0 min 14,2 km/h (3 Bft)
18.06.2011 08:54 21,4 C 14,8 C 6,8 UV-I 3,5 C 57 % 85 % 100 % 1003,0 hPa 0,0 l/m 10,4 km/h (2 Bft) 2 min 0 min 13,2 km/h (3 Bft)
18.06.2011 08:56 21,4 C 15,1 C 6,8 UV-I 3,5 C 57 % 84 % 100 % 1003,0 hPa 0,0 l/m 10,8 km/h (2 Bft) 2 min 0 min 48,3 km/h (6 Bft)
18.06.2011 08:58 21,4 C 15,0 C 6,8 UV-I 3,4 C 57 % 84 % 97 % 1003,0 hPa 0,0 l/m 12,0 km/h (2 Bft) 2 min 0 min 8,0 km/h (2 Bft)
18.06.2011 09:00 21,4 C 15,1 C 3,8 UV-I 3,2 C 57 % 84 % 91 % 1003,0 hPa 0,0 l/m 11,6 km/h (2 Bft) 2 min 0 min 7,4 km/h (2 Bft)
18.06.2011 09:02 21,4 C 15,2 C 3,8 UV-I 3,1 C 57 % 84 % 89 % 1003,0 hPa 0,0 l/m 9,6 km/h (2 Bft) 2 min 0 min 14,2 km/h (3 Bft)
18.06.2011 09:04 21,4 C 15,3 C 3,4 UV-I 3,1 C 57 % 84 % 89 % 1003,0 hPa 0,0 l/m 9,2 km/h (2 Bft) 2 min 0 min 9,7 km/h (2 Bft)
18.06.2011 09:06 21,5 C 15,3 C 3,4 UV-I 3,1 C 57 % 82 % 89 % 1003,6 hPa 0,0 l/m 9,6 km/h (2 Bft) 2 min 0 min 12,6 km/h (3 Bft)
18.06.2011 09:08 21,5 C 15,2 C 3,4 UV-I 2,8 C 57 % 82 % 80 % 1003,6 hPa 0,0 l/m 10,0 km/h (2 Bft) 0 min 0 min 9,7 km/h (2 Bft)
18.06.2011 09:10 21,5 C 15,1 C 2,1 UV-I 2,5 C 57 % 81 % 71 % 1003,6 hPa 0,0 l/m 10,8 km/h (2 Bft) 0 min 0 min 9,3 km/h (2 Bft)
18.06.2011 09:12 21,5 C 15,1 C 2,1 UV-I 2,2 C 57 % 80 % 63 % 1003,6 hPa 0,0 l/m 11,6 km/h (2 Bft) 0 min 0 min 16,1 km/h (3 Bft)
18.06.2011 09:14 21,5 C 15,0 C 1,8 UV-I 1,9 C 57 % 79 % 54 % 1003,6 hPa 0,0 l/m 12,8 km/h (3 Bft) 0 min 0 min 20,9 km/h (4 Bft)
18.06.2011 09:16 21,5 C 14,8 C 1,8 UV-I 1,9 C 56 % 79 % 54 % 1003,6 hPa 0,0 l/m 13,3 km/h (3 Bft) 0 min 0 min 15,1 km/h (3 Bft)
18.06.2011 09:18 21,5 C 14,8 C 1,8 UV-I 1,6 C 56 % 80 % 46 % 1003,6 hPa 0,0 l/m 12,8 km/h (3 Bft) 0 min 0 min 12,2 km/h (2 Bft)
18.06.2011 09:20 21,5 C 14,9 C 2,1 UV-I 1,4 C 56 % 79 % 40 % 1003,6 hPa 0,0 l/m 12,8 km/h (3 Bft) 0 min 0 min 10,0 km/h (2 Bft)
18.06.2011 09:22 21,5 C 14,8 C 2,1 UV-I 1,3 C 56 % 80 % 37 % 1003,6 hPa 0,0 l/m 12,4 km/h (3 Bft) 0 min 0 min 8,4 km/h (2 Bft)
18.06.2011 09:24 21,5 C 14,9 C 2,6 UV-I 1,3 C 56 % 80 % 37 % 1003,6 hPa 0,0 l/m 12,0 km/h (2 Bft) 0 min 0 min 8,7 km/h (2 Bft)
18.06.2011 09:26 21,5 C 14,8 C 2,6 UV-I 1,5 C 56 % 79 % 43 % 1003,4 hPa 0,0 l/m 11,2 km/h (2 Bft) 0 min 0 min 10,9 km/h (2 Bft)
18.06.2011 09:28 21,5 C 14,8 C 2,6 UV-I 1,6 C 55 % 80 % 46 % 1003,4 hPa 0,0 l/m 10,8 km/h (2 Bft) 0 min 0 min 5,1 km/h (1 Bft)
18.06.2011 09:30 21,5 C 14,9 C 4,6 UV-I 2,2 C 55 % 78 % 63 % 1003,4 hPa 0,0 l/m 11,6 km/h (2 Bft) 0 min 0 min 14,5 km/h (3 Bft)
18.06.2011 09:32 21,5 C 14,9 C 4,6 UV-I 2,6 C 55 % 78 % 74 % 1003,4 hPa 0,0 l/m 11,2 km/h (2 Bft) 0 min 0 min 8,7 km/h (2 Bft)
18.06.2011 09:34 21,5 C 14,9 C 3,7 UV-I 2,6 C 55 % 78 % 74 % 1003,4 hPa 0,0 l/m 11,2 km/h (2 Bft) 0 min 0 min 15,4 km/h (3 Bft)
18.06.2011 09:36 21,5 C 14,9 C 3,7 UV-I 2,4 C 55 % 77 % 69 % 1003,4 hPa 0,0 l/m 12,0 km/h (2 Bft) 0 min 0 min 12,9 km/h (3 Bft)
18.06.2011 09:38 21,5 C 14,9 C 3,7 UV-I 2,3 C 55 % 77 % 66 % 1003,4 hPa 0,0 l/m 11,6 km/h (2 Bft) 0 min 0 min 8,4 km/h (2 Bft)
18.06.2011 09:40 21,5 C 14,9 C 2,2 UV-I 2,0 C 55 % 77 % 57 % 1003,4 hPa 0,0 l/m 12,4 km/h (3 Bft) 0 min 0 min 20,6 km/h (4 Bft)
18.06.2011 09:42 21,5 C 15,0 C 2,2 UV-I 2,2 C 55 % 76 % 63 % 1003,4 hPa 0,0 l/m 12,4 km/h (3 Bft) 0 min 0 min 10,0 km/h (2 Bft)
18.06.2011 09:44 21,5 C 15,1 C 7,5 UV-I 2,6 C 54 % 76 % 74 % 1003,4 hPa 0,0 l/m 13,3 km/h (3 Bft) 0 min 0 min 21,6 km/h (4 Bft)
18.06.2011 09:46 21,5 C 15,0 C 7,5 UV-I 3,2 C 54 % 75 % 91 % 1003,6 hPa 0,0 l/m 13,3 km/h (3 Bft) 2 min 0 min 12,2 km/h (2 Bft)
18.06.2011 09:48 21,5 C 15,2 C 7,5 UV-I 3,4 C 54 % 76 % 97 % 1003,6 hPa 0,0 l/m 12,8 km/h (3 Bft) 2 min 0 min 14,2 km/h (3 Bft)
18.06.2011 09:50 21,5 C 15,2 C 7,3 UV-I 3,7 C 54 % 74 % 100 % 1003,6 hPa 0,0 l/m 13,7 km/h (3 Bft) 2 min 0 min 23,2 km/h (4 Bft)
18.06.2011 09:52 21,5 C 15,2 C 7,3 UV-I 3,9 C 54 % 73 % 100 % 1003,6 hPa 0,0 l/m 14,5 km/h (3 Bft) 2 min 0 min 16,1 km/h (3 Bft)
18.06.2011 09:54 21,5 C 15,3 C 8,9 UV-I 3,9 C 54 % 74 % 100 % 1003,6 hPa 0,0 l/m 13,3 km/h (3 Bft) 2 min 0 min 4,5 km/h (1 Bft)
18.06.2011 09:56 21,5 C 15,3 C 8,9 UV-I 4,3 C 54 % 73 % 100 % 1003,6 hPa 0,0 l/m 13,7 km/h (3 Bft) 2 min 0 min 18,7 km/h (3 Bft)
18.06.2011 09:58 21,5 C 15,4 C 8,9 UV-I 4,6 C 54 % 71 % 100 % 1003,6 hPa 0,0 l/m 15,3 km/h (3 Bft) 2 min 0 min 21,6 km/h (4 Bft)
18.06.2011 10:00 21,5 C 15,5 C 8,6 UV-I 4,6 C 53 % 70 % 100 % 1003,6 hPa 0,0 l/m 16,1 km/h (3 Bft) 2 min 0 min 14,5 km/h (3 Bft)
18.06.2011 10:02 21,5 C 15,5 C 8,6 UV-I 4,3 C 53 % 70 % 100 % 1003,6 hPa 0,0 l/m 15,3 km/h (3 Bft) 2 min 0 min 20,6 km/h (4 Bft)
18.06.2011 10:04 21,5 C 15,5 C 8,0 UV-I 4,3 C 53 % 70 % 100 % 1003,6 hPa 0,0 l/m 15,3 km/h (3 Bft) 2 min 0 min 12,2 km/h (2 Bft)
18.06.2011 10:06 21,5 C 15,5 C 8,0 UV-I 4,5 C 53 % 70 % 100 % 1003,9 hPa 0,0 l/m 16,5 km/h (3 Bft) 2 min 0 min 15,1 km/h (3 Bft)
18.06.2011 10:08 21,5 C 15,5 C 8,0 UV-I 4,3 C 53 % 71 % 100 % 1003,9 hPa 0,0 l/m 15,7 km/h (3 Bft) 2 min 0 min 16,1 km/h (3 Bft)
18.06.2011 10:10 21,5 C 15,5 C 3,6 UV-I 3,7 C 53 % 70 % 100 % 1003,9 hPa 0,0 l/m 14,9 km/h (3 Bft) 2 min 0 min 14,5 km/h (3 Bft)
18.06.2011 10:12 21,5 C 15,5 C 3,6 UV-I 3,2 C 53 % 70 % 91 % 1003,9 hPa 0,0 l/m 15,3 km/h (3 Bft) 2 min 0 min 14,8 km/h (3 Bft)
18.06.2011 10:14 21,5 C 15,5 C 6,1 UV-I 3,3 C 52 % 70 % 94 % 1003,9 hPa 0,0 l/m 13,7 km/h (3 Bft) 2 min 0 min 14,8 km/h (3 Bft)
18.06.2011 10:16 21,5 C 15,5 C 6,1 UV-I 3,8 C 52 % 70 % 100 % 1003,9 hPa 0,0 l/m 12,4 km/h (3 Bft) 2 min 0 min 7,7 km/h (2 Bft)
18.06.2011 10:18 21,5 C 15,6 C 6,1 UV-I 3,9 C 52 % 70 % 100 % 1003,9 hPa 0,0 l/m 12,0 km/h (2 Bft) 2 min 0 min 16,7 km/h (3 Bft)
18.06.2011 10:20 21,5 C 15,6 C 6,2 UV-I 4,0 C 52 % 71 % 100 % 1003,9 hPa 0,0 l/m 11,6 km/h (2 Bft) 2 min 0 min 12,9 km/h (3 Bft)
18.06.2011 10:22 21,5 C 15,7 C 6,2 UV-I 4,3 C 52 % 69 % 100 % 1003,9 hPa 0,0 l/m 12,4 km/h (3 Bft) 2 min 0 min 18,7 km/h (3 Bft)
18.06.2011 10:24 21,5 C 15,7 C 6,9 UV-I 4,4 C 52 % 68 % 100 % 1003,9 hPa 0,0 l/m 13,3 km/h (3 Bft) 2 min 0 min 15,8 km/h (3 Bft)
18.06.2011 10:26 21,5 C 15,8 C 6,9 UV-I 4,1 C 52 % 68 % 100 % 1004,1 hPa 0,0 l/m 14,1 km/h (3 Bft) 2 min 0 min 15,8 km/h (3 Bft)
18.06.2011 10:28 21,5 C 15,6 C 6,9 UV-I 3,8 C 52 % 67 % 100 % 1004,1 hPa 0,0 l/m 14,5 km/h (3 Bft) 2 min 0 min 23,5 km/h (4 Bft)
18.06.2011 10:30 21,5 C 15,6 C 1,8 UV-I 2,9 C 52 % 66 % 83 % 1004,1 hPa 0,0 l/m 14,9 km/h (3 Bft) 2 min 0 min 17,1 km/h (3 Bft)
18.06.2011 10:32 21,5 C 15,4 C 1,8 UV-I 2,4 C 52 % 68 % 69 % 1004,1 hPa 0,0 l/m 13,3 km/h (3 Bft) 0 min 0 min 3,9 km/h (1 Bft)
18.06.2011 10:34 21,5 C 15,5 C 1,2 UV-I 1,9 C 51 % 68 % 54 % 1004,1 hPa 0,0 l/m 12,0 km/h (2 Bft) 0 min 0 min 10,3 km/h (2 Bft)
18.06.2011 10:36 21,5 C 15,3 C 1,2 UV-I 1,6 C 51 % 69 % 46 % 1004,1 hPa 0,0 l/m 10,8 km/h (2 Bft) 0 min 0 min 6,8 km/h (2 Bft)
18.06.2011 10:38 21,5 C 15,3 C 1,2 UV-I 1,4 C 52 % 68 % 40 % 1004,1 hPa 0,0 l/m 10,8 km/h (2 Bft) 0 min 0 min 9,7 km/h (2 Bft)
18.06.2011 10:40 21,5 C 15,3 C 3,9 UV-I 1,4 C 51 % 68 % 40 % 1004,1 hPa 0,0 l/m 11,2 km/h (2 Bft) 0 min 0 min 13,2 km/h (3 Bft)
18.06.2011 10:42 21,5 C 15,5 C 3,9 UV-I 2,2 C 51 % 68 % 63 % 1004,1 hPa 0,0 l/m 9,6 km/h (2 Bft) 0 min 0 min 4,5 km/h (1 Bft)
18.06.2011 10:44 21,5 C 15,6 C 7,8 UV-I 3,1 C 51 % 69 % 89 % 1004,1 hPa 0,0 l/m 10,0 km/h (2 Bft) 2 min 0 min 9,0 km/h (2 Bft)
18.06.2011 10:46 21,5 C 15,7 C 7,8 UV-I 4,3 C 51 % 69 % 100 % 1004,2 hPa 0,0 l/m 10,4 km/h (2 Bft) 2 min 0 min 12,6 km/h (3 Bft)
18.06.2011 10:48 21,5 C 15,9 C 7,8 UV-I 4,1 C 51 % 67 % 100 % 1004,2 hPa 0,0 l/m 11,6 km/h (2 Bft) 2 min 0 min 6,8 km/h (2 Bft)
18.06.2011 10:50 21,5 C 15,8 C 7,8 UV-I 3,8 C 51 % 66 % 100 % 1004,2 hPa 0,0 l/m 11,2 km/h (2 Bft) 2 min 0 min 14,5 km/h (3 Bft)
18.06.2011 10:52 21,5 C 15,7 C 7,8 UV-I 3,3 C 51 % 66 % 94 % 1004,2 hPa 0,0 l/m 11,6 km/h (2 Bft) 2 min 0 min 11,3 km/h (2 Bft)
18.06.2011 10:54 21,5 C 15,7 C 2,3 UV-I 2,8 C 51 % 66 % 80 % 1004,2 hPa 0,0 l/m 12,8 km/h (3 Bft) 0 min 0 min 10,9 km/h (2 Bft)
18.06.2011 10:56 21,5 C 15,7 C 2,3 UV-I 2,6 C 51 % 66 % 74 % 1004,2 hPa 0,0 l/m 14,1 km/h (3 Bft) 0 min 0 min 14,2 km/h (3 Bft)
18.06.2011 10:58 21,5 C 15,6 C 2,3 UV-I 2,8 C 51 % 65 % 80 % 1004,2 hPa 0,0 l/m 14,1 km/h (3 Bft) 0 min 0 min 30,9 km/h (5 Bft)
18.06.2011 11:00 21,5 C 15,9 C 6,1 UV-I 3,1 C 51 % 67 % 89 % 1004,2 hPa 0,0 l/m 14,1 km/h (3 Bft) 2 min 0 min 9,0 km/h (2 Bft)
18.06.2011 11:02 21,5 C 15,9 C 6,1 UV-I 3,6 C 51 % 66 % 100 % 1004,2 hPa 0,0 l/m 14,1 km/h (3 Bft) 2 min 0 min 10,9 km/h (2 Bft)
18.06.2011 11:04 21,5 C 16,0 C 7,6 UV-I 4,2 C 51 % 67 % 100 % 1004,2 hPa 0,0 l/m 13,7 km/h (3 Bft) 2 min 0 min 19,6 km/h (3 Bft)
18.06.2011 11:06 21,5 C 16,2 C 7,6 UV-I 4,1 C 51 % 67 % 100 % 1004,1 hPa 0,0 l/m 12,4 km/h (3 Bft) 2 min 0 min 3,5 km/h (1 Bft)
18.06.2011 11:08 21,5 C 16,4 C 7,6 UV-I 4,3 C 51 % 67 % 100 % 1004,1 hPa 0,0 l/m 10,8 km/h (2 Bft) 2 min 0 min 9,7 km/h (2 Bft)
18.06.2011 11:10 21,5 C 16,4 C 5,9 UV-I 4,3 C 51 % 65 % 100 % 1004,1 hPa 0,0 l/m 9,6 km/h (2 Bft) 2 min 0 min 14,8 km/h (3 Bft)
18.06.2011 11:12 21,5 C 16,5 C 5,9 UV-I 4,3 C 51 % 64 % 100 % 1004,1 hPa 0,0 l/m 9,2 km/h (2 Bft) 2 min 0 min 11,6 km/h (2 Bft)
18.06.2011 11:14 21,5 C 16,5 C 3,8 UV-I 3,8 C 51 % 63 % 100 % 1004,1 hPa 0,0 l/m 8,8 km/h (2 Bft) 2 min 0 min 7,4 km/h (2 Bft)
18.06.2011 11:16 21,5 C 16,4 C 3,8 UV-I 3,6 C 51 % 64 % 100 % 1004,1 hPa 0,0 l/m 8,4 km/h (2 Bft) 2 min 0 min 9,3 km/h (2 Bft)
18.06.2011 11:18 21,5 C 16,4 C 3,8 UV-I 3,8 C 51 % 63 % 100 % 1004,1 hPa 0,0 l/m 10,0 km/h (2 Bft) 2 min 0 min 27,7 km/h (4 Bft)
18.06.2011 11:20 21,5 C 16,4 C 4,6 UV-I 3,8 C 51 % 63 % 100 % 1004,1 hPa 0,0 l/m 11,2 km/h (2 Bft) 2 min 0 min 18,7 km/h (3 Bft)
18.06.2011 11:22 21,6 C 16,4 C 4,6 UV-I 3,8 C 51 % 63 % 100 % 1004,1 hPa 0,0 l/m 11,6 km/h (2 Bft) 2 min 0 min 13,8 km/h (3 Bft)
18.06.2011 11:24 21,5 C 16,5 C 6,2 UV-I 3,9 C 50 % 64 % 100 % 1004,1 hPa 0,0 l/m 12,4 km/h (3 Bft) 2 min 0 min 10,9 km/h (2 Bft)
18.06.2011 11:26 21,6 C 16,6 C 6,2 UV-I 4,3 C 50 % 63 % 100 % 1004,2 hPa 0,0 l/m 14,9 km/h (3 Bft) 2 min 0 min 9,7 km/h (2 Bft)
18.06.2011 11:28 21,6 C 16,6 C 6,2 UV-I 4,7 C 50 % 63 % 100 % 1004,2 hPa 0,0 l/m 16,5 km/h (3 Bft) 2 min 0 min 20,9 km/h (4 Bft)
18.06.2011 11:30 21,6 C 16,7 C 6,5 UV-I 4,5 C 50 % 63 % 100 % 1004,2 hPa 0,0 l/m 15,7 km/h (3 Bft) 2 min 0 min 18,7 km/h (3 Bft)
18.06.2011 11:32 21,6 C 16,6 C 6,5 UV-I 4,1 C 50 % 63 % 100 % 1004,2 hPa 0,0 l/m 16,5 km/h (3 Bft) 2 min 0 min 20,6 km/h (4 Bft)
18.06.2011 11:34 21,6 C 16,6 C 5,8 UV-I 4,3 C 50 % 62 % 100 % 1004,2 hPa 0,0 l/m 17,7 km/h (3 Bft) 2 min 0 min 24,1 km/h (4 Bft)
18.06.2011 11:36 21,6 C 16,7 C 5,8 UV-I 4,5 C 50 % 64 % 100 % 1004,2 hPa 0,0 l/m 16,5 km/h (3 Bft) 2 min 0 min 13,2 km/h (3 Bft)
18.06.2011 11:38 21,6 C 16,8 C 5,8 UV-I 4,8 C 50 % 64 % 100 % 1004,2 hPa 0,0 l/m 16,5 km/h (3 Bft) 2 min 0 min 14,8 km/h (3 Bft)
18.06.2011 11:40 21,6 C 16,7 C 3,7 UV-I 4,9 C 50 % 64 % 100 % 1004,2 hPa 0,0 l/m 16,1 km/h (3 Bft) 2 min 0 min 16,7 km/h (3 Bft)
18.06.2011 11:42 21,6 C 16,7 C 3,7 UV-I 5,0 C 50 % 63 % 100 % 1004,2 hPa 0,0 l/m 16,1 km/h (3 Bft) 2 min 0 min 14,8 km/h (3 Bft)
18.06.2011 11:44 21,6 C 16,7 C 3,7 UV-I 5,0 C 50 % 64 % 100 % 1004,2 hPa 0,0 l/m 14,9 km/h (3 Bft) 2 min 0 min 13,8 km/h (3 Bft)
18.06.2011 11:46 21,6 C 16,7 C 3,7 UV-I 5,1 C 50 % 64 % 100 % 1005,2 hPa 0,0 l/m 14,9 km/h (3 Bft) 2 min 0 min 22,9 km/h (4 Bft)
18.06.2011 11:48 21,6 C 16,8 C 3,7 UV-I 5,1 C 50 % 64 % 100 % 1005,2 hPa 0,0 l/m 14,1 km/h (3 Bft) 2 min 0 min 9,7 km/h (2 Bft)
18.06.2011 11:50 21,6 C 16,9 C 3,2 UV-I 5,2 C 50 % 64 % 100 % 1005,2 hPa 0,0 l/m 14,1 km/h (3 Bft) 2 min 0 min 29,3 km/h (5 Bft)
18.06.2011 11:52 21,6 C 16,8 C 3,2 UV-I 5,1 C 50 % 63 % 100 % 1005,2 hPa 0,0 l/m 14,1 km/h (3 Bft) 2 min 0 min 13,5 km/h (3 Bft)
18.06.2011 11:54 21,6 C 16,9 C 3,4 UV-I 5,2 C 50 % 63 % 100 % 1005,2 hPa 0,0 l/m 14,1 km/h (3 Bft) 2 min 0 min 15,8 km/h (3 Bft)
18.06.2011 11:56 21,6 C 16,9 C 3,4 UV-I 5,1 C 50 % 63 % 100 % 1005,2 hPa 0,0 l/m 14,1 km/h (3 Bft) 2 min 0 min 5,8 km/h (2 Bft)
18.06.2011 11:58 21,6 C 16,9 C 3,4 UV-I 4,5 C 50 % 63 % 100 % 1005,2 hPa 0,0 l/m 13,7 km/h (3 Bft) 2 min 0 min 9,7 km/h (2 Bft)
18.06.2011 12:00 21,6 C 16,8 C 3,1 UV-I 4,0 C 50 % 63 % 100 % 1005,2 hPa 0,0 l/m 12,8 km/h (3 Bft) 2 min 0 min 6,4 km/h (2 Bft)
18.06.2011 12:02 21,7 C 16,8 C 3,1 UV-I 3,5 C 50 % 63 % 100 % 1005,2 hPa 0,0 l/m 11,6 km/h (2 Bft) 2 min 0 min 7,7 km/h (2 Bft)
18.06.2011 12:04 21,6 C 16,8 C 3,1 UV-I 3,5 C 50 % 63 % 100 % 1005,2 hPa 0,0 l/m 11,6 km/h (2 Bft) 2 min 0 min 13,5 km/h (3 Bft)
18.06.2011 12:06 21,6 C 16,8 C 3,1 UV-I 2,7 C 50 % 63 % 77 % 1004,9 hPa 0,0 l/m 10,8 km/h (2 Bft) 0 min 0 min 10,0 km/h (2 Bft)
18.06.2011 12:08 21,6 C 16,7 C 3,1 UV-I 2,5 C 50 % 63 % 71 % 1004,9 hPa 0,0 l/m 11,2 km/h (2 Bft) 0 min 0 min 8,7 km/h (2 Bft)
18.06.2011 12:10 21,7 C 16,6 C 2,5 UV-I 2,3 C 50 % 64 % 66 % 1004,9 hPa 0,0 l/m 11,2 km/h (2 Bft) 0 min 0 min 11,9 km/h (2 Bft)
18.06.2011 12:12 21,7 C 16,5 C 2,5 UV-I 2,3 C 50 % 65 % 66 % 1004,9 hPa 0,0 l/m 11,6 km/h (2 Bft) 0 min 0 min 9,0 km/h (2 Bft)
18.06.2011 12:14 21,7 C 16,4 C 2,1 UV-I 2,1 C 50 % 65 % 60 % 1004,9 hPa 0,0 l/m 11,2 km/h (2 Bft) 0 min 0 min 7,4 km/h (2 Bft)
18.06.2011 12:16 21,7 C 16,4 C 2,1 UV-I 1,9 C 50 % 66 % 54 % 1004,9 hPa 0,0 l/m 10,0 km/h (2 Bft) 0 min 2 min 8,0 km/h (2 Bft)
18.06.2011 12:18 21,7 C 16,4 C 2,1 UV-I 1,7 C 50 % 67 % 49 % 1004,9 hPa 0,0 l/m 9,6 km/h (2 Bft) 0 min 2 min 6,8 km/h (2 Bft)
18.06.2011 12:20 21,7 C 16,3 C 1,7 UV-I 1,1 C 50 % 68 % 31 % 1004,9 hPa 0,0 l/m 9,6 km/h (2 Bft) 0 min 2 min 6,4 km/h (2 Bft)
18.06.2011 12:22 21,7 C 16,1 C 1,7 UV-I 0,3 C 50 % 70 % 9 % 1004,9 hPa 0,0 l/m 9,2 km/h (2 Bft) 0 min 2 min 12,6 km/h (3 Bft)
18.06.2011 12:24 21,7 C 15,7 C 1,2 UV-I 0,0 C 50 % 72 % 0 % 1004,9 hPa 0,0 l/m 8,8 km/h (2 Bft) 0 min 2 min 8,0 km/h (2 Bft)
18.06.2011 12:26 21,7 C 15,4 C 1,2 UV-I 0,0 C 50 % 73 % 0 % 1004,7 hPa 0,2 l/m 9,2 km/h (2 Bft) 0 min 0 min 10,3 km/h (2 Bft)
18.06.2011 12:28 21,7 C 15,3 C 1,2 UV-I 0,0 C 50 % 73 % 0 % 1004,7 hPa 0,0 l/m 8,4 km/h (2 Bft) 0 min 0 min 6,1 km/h (2 Bft)
18.06.2011 12:30 21,7 C 15,2 C 1,3 UV-I 0,0 C 50 % 74 % 0 % 1004,7 hPa 0,0 l/m 6,8 km/h (2 Bft) 0 min 0 min 0,0 km/h (0 Bft)
18.06.2011 12:32 21,7 C 15,1 C 1,3 UV-I 0,0 C 50 % 74 % 0 % 1004,7 hPa 0,0 l/m 7,2 km/h (2 Bft) 0 min 0 min 8,7 km/h (2 Bft)
18.06.2011 12:34 21,7 C 15,2 C 1,3 UV-I 0,0 C 51 % 75 % 0 % 1004,7 hPa 0,0 l/m 7,2 km/h (2 Bft) 0 min 0 min 6,8 km/h (2 Bft)
18.06.2011 12:36 21,7 C 15,5 C 1,3 UV-I 0,6 C 51 % 75 % 17 % 1004,7 hPa 0,0 l/m 7,2 km/h (2 Bft) 0 min 0 min 13,2 km/h (3 Bft)
18.06.2011 12:38 21,7 C 15,7 C 1,3 UV-I 1,8 C 51 % 75 % 51 % 1004,7 hPa 0,0 l/m 8,0 km/h (2 Bft) 0 min 0 min 17,7 km/h (3 Bft)
18.06.2011 12:40 21,7 C 15,9 C 3,3 UV-I 2,2 C 51 % 74 % 63 % 1004,7 hPa 0,0 l/m 9,2 km/h (2 Bft) 0 min 0 min 21,9 km/h (4 Bft)
18.06.2011 12:42 21,7 C 16,0 C 3,3 UV-I 2,8 C 51 % 72 % 80 % 1004,7 hPa 0,0 l/m 10,8 km/h (2 Bft) 0 min 0 min 9,7 km/h (2 Bft)
18.06.2011 12:44 21,7 C 16,1 C 2,8 UV-I 2,6 C 51 % 73 % 74 % 1004,7 hPa 0,0 l/m 9,2 km/h (2 Bft) 0 min 0 min 6,8 km/h (2 Bft)
18.06.2011 12:46 21,7 C 16,3 C 2,8 UV-I 2,2 C 51 % 73 % 63 % 1004,9 hPa 0,0 l/m 8,8 km/h (2 Bft) 0 min 0 min 6,4 km/h (2 Bft)
18.06.2011 12:48 21,7 C 16,3 C 2,8 UV-I 2,1 C 51 % 73 % 60 % 1004,9 hPa 0,0 l/m 7,6 km/h (2 Bft) 0 min 0 min 10,3 km/h (2 Bft)
18.06.2011 12:50 21,8 C 16,3 C 2,1 UV-I 1,9 C 51 % 71 % 54 % 1004,9 hPa 0,0 l/m 7,2 km/h (2 Bft) 0 min 0 min 10,0 km/h (2 Bft)
18.06.2011 12:52 21,8 C 16,2 C 2,1 UV-I 2,1 C 51 % 69 % 60 % 1004,9 hPa 0,0 l/m 6,8 km/h (2 Bft) 0 min 0 min 21,6 km/h (4 Bft)
18.06.2011 12:54 21,7 C 16,4 C 2,1 UV-I 2,4 C 51 % 70 % 69 % 1004,9 hPa 0,0 l/m 6,4 km/h (2 Bft) 0 min 0 min 4,5 km/h (1 Bft)
18.06.2011 12:56 21,8 C 16,4 C 2,1 UV-I 2,8 C 51 % 69 % 80 % 1004,9 hPa 0,0 l/m 6,8 km/h (2 Bft) 0 min 0 min 7,4 km/h (2 Bft)
18.06.2011 12:58 21,8 C 16,6 C 2,1 UV-I 3,1 C 51 % 68 % 89 % 1004,9 hPa 0,0 l/m 8,0 km/h (2 Bft) 2 min 0 min 6,8 km/h (2 Bft)
18.06.2011 13:00 21,8 C 16,8 C 3,4 UV-I 3,1 C 51 % 69 % 89 % 1004,9 hPa 0,0 l/m 8,4 km/h (2 Bft) 2 min 0 min 14,8 km/h (3 Bft)
18.06.2011 13:02 21,8 C 16,8 C 3,4 UV-I 3,1 C 51 % 67 % 89 % 1004,9 hPa 0,0 l/m 8,8 km/h (2 Bft) 2 min 0 min 6,8 km/h (2 Bft)
18.06.2011 13:04 21,8 C 16,9 C 2,7 UV-I 2,8 C 51 % 65 % 80 % 1004,9 hPa 0,0 l/m 7,2 km/h (2 Bft) 0 min 0 min 12,2 km/h (2 Bft)
18.06.2011 13:06 21,8 C 16,8 C 2,7 UV-I 2,4 C 51 % 64 % 69 % 1004,8 hPa 0,0 l/m 8,4 km/h (2 Bft) 0 min 0 min 3,9 km/h (1 Bft)
18.06.2011 13:08 21,8 C 16,7 C 2,7 UV-I 2,2 C 51 % 65 % 63 % 1004,8 hPa 0,0 l/m 8,8 km/h (2 Bft) 0 min 0 min 15,4 km/h (3 Bft)
18.06.2011 13:10 21,8 C 16,6 C 2,0 UV-I 2,0 C 51 % 64 % 57 % 1004,8 hPa 0,0 l/m 9,2 km/h (2 Bft) 0 min 0 min 10,9 km/h (2 Bft)
18.06.2011 13:12 21,8 C 16,6 C 2,0 UV-I 2,0 C 51 % 63 % 57 % 1004,8 hPa 0,0 l/m 10,4 km/h (2 Bft) 0 min 0 min 22,5 km/h (4 Bft)
18.06.2011 13:14 21,9 C 16,7 C 3,9 UV-I 2,3 C 50 % 63 % 66 % 1004,8 hPa 0,0 l/m 12,8 km/h (3 Bft) 0 min 0 min 24,1 km/h (4 Bft)
18.06.2011 13:16 21,9 C 16,8 C 3,9 UV-I 2,8 C 50 % 65 % 80 % 1004,8 hPa 0,0 l/m 12,8 km/h (3 Bft) 0 min 0 min 9,7 km/h (2 Bft)
18.06.2011 13:18 21,9 C 17,0 C 3,9 UV-I 3,2 C 50 % 64 % 91 % 1004,8 hPa 0,0 l/m 14,9 km/h (3 Bft) 2 min 0 min 20,3 km/h (4 Bft)
18.06.2011 13:20 21,9 C 16,9 C 3,5 UV-I 3,1 C 50 % 64 % 89 % 1004,8 hPa 0,0 l/m 15,7 km/h (3 Bft) 2 min 0 min 8,0 km/h (2 Bft)
18.06.2011 13:22 21,9 C 16,8 C 3,5 UV-I 2,5 C 50 % 63 % 71 % 1004,8 hPa 0,0 l/m 16,9 km/h (3 Bft) 0 min 0 min 17,4 km/h (3 Bft)
18.06.2011 13:24 21,9 C 16,7 C 1,8 UV-I 2,0 C 50 % 65 % 57 % 1004,8 hPa 0,0 l/m 15,3 km/h (3 Bft) 0 min 2 min 17,7 km/h (3 Bft)
18.06.2011 13:26 21,9 C 16,4 C 1,8 UV-I 1,6 C 50 % 65 % 46 % 1005,3 hPa 0,0 l/m 14,1 km/h (3 Bft) 0 min 0 min 13,2 km/h (3 Bft)
18.06.2011 13:28 21,9 C 16,3 C 1,8 UV-I 1,5 C 50 % 65 % 43 % 1005,3 hPa 0,0 l/m 14,1 km/h (3 Bft) 0 min 0 min 23,2 km/h (4 Bft)
18.06.2011 13:30 21,9 C 16,1 C 3,6 UV-I 1,7 C 50 % 65 % 49 % 1005,3 hPa 0,0 l/m 12,8 km/h (3 Bft) 0 min 0 min 6,8 km/h (2 Bft)
18.06.2011 13:32 21,9 C 16,1 C 3,6 UV-I 1,7 C 50 % 66 % 49 % 1005,3 hPa 0,0 l/m 12,8 km/h (3 Bft) 0 min 0 min 7,1 km/h (2 Bft)
18.06.2011 13:34 21,9 C 16,1 C 4,7 UV-I 2,3 C 50 % 66 % 66 % 1005,3 hPa 0,0 l/m 13,7 km/h (3 Bft) 0 min 0 min 34,8 km/h (5 Bft)
18.06.2011 13:36 22,0 C 16,3 C 4,7 UV-I 2,5 C 50 % 66 % 71 % 1005,3 hPa 0,0 l/m 14,9 km/h (3 Bft) 0 min 0 min 22,9 km/h (4 Bft)
18.06.2011 13:38 22,0 C 16,3 C 4,7 UV-I 3,1 C 50 % 67 % 89 % 1005,3 hPa 0,0 l/m 14,9 km/h (3 Bft) 2 min 0 min 5,1 km/h (1 Bft)
18.06.2011 13:40 22,0 C 16,4 C 5,1 UV-I 3,1 C 50 % 66 % 89 % 1005,3 hPa 0,0 l/m 14,5 km/h (3 Bft) 2 min 0 min 10,9 km/h (2 Bft)
18.06.2011 13:42 22,0 C 16,3 C 5,1 UV-I 3,0 C 50 % 67 % 86 % 1005,3 hPa 0,0 l/m 15,3 km/h (3 Bft) 2 min 0 min 11,3 km/h (2 Bft)
18.06.2011 13:44 22,0 C 16,3 C 4,2 UV-I 2,7 C 49 % 66 % 77 % 1005,3 hPa 0,0 l/m 15,3 km/h (3 Bft) 0 min 0 min 12,9 km/h (3 Bft)
18.06.2011 13:46 22,0 C 16,1 C 4,2 UV-I 2,7 C 49 % 67 % 77 % 1005,1 hPa 0,0 l/m 14,5 km/h (3 Bft) 0 min 0 min 10,6 km/h (2 Bft)
18.06.2011 13:48 22,0 C 16,3 C 4,2 UV-I 2,7 C 49 % 68 % 77 % 1005,1 hPa 0,0 l/m 12,4 km/h (3 Bft) 0 min 0 min 13,5 km/h (3 Bft)
18.06.2011 13:50 22,0 C 16,4 C 5,8 UV-I 3,5 C 49 % 69 % 100 % 1005,1 hPa 0,0 l/m 11,6 km/h (2 Bft) 2 min 0 min 8,4 km/h (2 Bft)
18.06.2011 13:52 22,0 C 16,6 C 5,8 UV-I 3,8 C 49 % 69 % 100 % 1005,1 hPa 0,0 l/m 11,6 km/h (2 Bft) 2 min 0 min 15,4 km/h (3 Bft)
18.06.2011 13:54 22,0 C 16,7 C 4,3 UV-I 3,6 C 49 % 69 % 100 % 1005,1 hPa 0,0 l/m 10,4 km/h (2 Bft) 2 min 0 min 8,0 km/h (2 Bft)
18.06.2011 13:56 22,0 C 16,6 C 4,3 UV-I 3,5 C 49 % 68 % 100 % 1005,1 hPa 0,0 l/m 11,6 km/h (2 Bft) 2 min 0 min 13,2 km/h (3 Bft)
18.06.2011 13:58 22,0 C 16,6 C 4,3 UV-I 3,3 C 50 % 68 % 94 % 1005,1 hPa 0,0 l/m 12,0 km/h (2 Bft) 2 min 0 min 15,1 km/h (3 Bft)
18.06.2011 14:00 22,0 C 16,7 C 4,1 UV-I 3,2 C 50 % 68 % 91 % 1005,1 hPa 0,0 l/m 12,0 km/h (2 Bft) 2 min 0 min 7,4 km/h (2 Bft)
18.06.2011 14:02 22,1 C 16,9 C 4,1 UV-I 3,3 C 50 % 68 % 94 % 1005,1 hPa 0,0 l/m 12,0 km/h (2 Bft) 2 min 0 min 8,7 km/h (2 Bft)
18.06.2011 14:04 22,1 C 17,2 C 5,6 UV-I 3,8 C 50 % 69 % 100 % 1005,1 hPa 0,0 l/m 11,2 km/h (2 Bft) 2 min 0 min 9,7 km/h (2 Bft)
18.06.2011 14:06 22,1 C 17,4 C 5,6 UV-I 4,2 C 50 % 66 % 100 % 1004,8 hPa 0,0 l/m 10,8 km/h (2 Bft) 2 min 0 min 10,9 km/h (2 Bft)
18.06.2011 14:08 22,1 C 17,3 C 5,6 UV-I 4,1 C 50 % 65 % 100 % 1004,8 hPa 0,0 l/m 10,8 km/h (2 Bft) 2 min 0 min 13,2 km/h (3 Bft)
18.06.2011 14:10 22,1 C 17,2 C 2,7 UV-I 3,6 C 50 % 65 % 100 % 1004,8 hPa 0,0 l/m 10,4 km/h (2 Bft) 2 min 0 min 3,9 km/h (1 Bft)
18.06.2011 14:12 22,1 C 17,1 C 2,7 UV-I 3,3 C 50 % 66 % 94 % 1004,8 hPa 0,0 l/m 10,8 km/h (2 Bft) 2 min 0 min 20,3 km/h (4 Bft)
18.06.2011 14:14 22,1 C 17,1 C 3,3 UV-I 3,1 C 50 % 65 % 89 % 1004,8 hPa 0,0 l/m 11,6 km/h (2 Bft) 2 min 0 min 14,2 km/h (3 Bft)
18.06.2011 14:16 22,1 C 17,1 C 3,3 UV-I 2,8 C 50 % 65 % 80 % 1004,8 hPa 0,0 l/m 11,6 km/h (2 Bft) 0 min 0 min 10,3 km/h (2 Bft)
18.06.2011 14:18 22,2 C 16,9 C 3,3 UV-I 3,0 C 50 % 65 % 86 % 1004,8 hPa 0,0 l/m 12,0 km/h (2 Bft) 2 min 0 min 22,9 km/h (4 Bft)
18.06.2011 14:20 22,2 C 16,9 C 3,9 UV-I 2,8 C 49 % 65 % 80 % 1004,8 hPa 0,0 l/m 12,0 km/h (2 Bft) 0 min 0 min 17,7 km/h (3 Bft)
18.06.2011 14:22 22,2 C 16,9 C 3,9 UV-I 2,7 C 49 % 66 % 77 % 1004,8 hPa 0,0 l/m 12,4 km/h (3 Bft) 0 min 0 min 15,4 km/h (3 Bft)
18.06.2011 14:24 22,2 C 17,1 C 5,2 UV-I 2,8 C 49 % 66 % 80 % 1004,8 hPa 0,0 l/m 12,0 km/h (2 Bft) 0 min 0 min 24,1 km/h (4 Bft)
18.06.2011 14:26 22,2 C 17,3 C 5,2 UV-I 3,4 C 49 % 66 % 97 % 1005,2 hPa 0,0 l/m 12,0 km/h (2 Bft) 2 min 0 min 5,1 km/h (1 Bft)
18.06.2011 14:28 22,2 C 17,5 C 5,2 UV-I 3,7 C 50 % 66 % 100 % 1005,2 hPa 0,0 l/m 11,6 km/h (2 Bft) 2 min 0 min 13,8 km/h (3 Bft)
18.06.2011 14:30 22,2 C 17,6 C 5,6 UV-I 3,9 C 49 % 65 % 100 % 1005,2 hPa 0,0 l/m 10,8 km/h (2 Bft) 2 min 0 min 13,2 km/h (3 Bft)
18.06.2011 14:32 22,3 C 17,7 C 5,6 UV-I 3,9 C 49 % 63 % 100 % 1005,2 hPa 0,0 l/m 11,6 km/h (2 Bft) 2 min 0 min 10,3 km/h (2 Bft)
18.06.2011 14:34 22,2 C 17,7 C 4,5 UV-I 3,8 C 49 % 64 % 100 % 1005,2 hPa 0,0 l/m 12,0 km/h (2 Bft) 2 min 0 min 16,4 km/h (3 Bft)
18.06.2011 14:36 22,2 C 17,6 C 4,5 UV-I 3,9 C 49 % 62 % 100 % 1005,2 hPa 0,0 l/m 12,0 km/h (2 Bft) 2 min 0 min 19,0 km/h (3 Bft)
18.06.2011 14:38 22,4 C 17,9 C 4,5 UV-I 4,0 C 49 % 62 % 100 % 1005,2 hPa 0,0 l/m 13,3 km/h (3 Bft) 2 min 0 min 15,4 km/h (3 Bft)
18.06.2011 14:40 22,4 C 17,9 C 5,1 UV-I 4,1 C 49 % 61 % 100 % 1005,2 hPa 0,0 l/m 12,8 km/h (3 Bft) 2 min 0 min 8,7 km/h (2 Bft)
18.06.2011 14:42 22,4 C 17,9 C 5,1 UV-I 3,8 C 49 % 61 % 100 % 1005,2 hPa 0,0 l/m 12,0 km/h (2 Bft) 2 min 0 min 7,7 km/h (2 Bft)
18.06.2011 14:44 22,4 C 17,9 C 4,6 UV-I 3,6 C 49 % 61 % 100 % 1005,2 hPa 0,0 l/m 11,2 km/h (2 Bft) 2 min 0 min 10,6 km/h (2 Bft)
18.06.2011 14:46 22,5 C 18,1 C 4,6 UV-I 3,6 C 49 % 61 % 100 % 1004,9 hPa 0,0 l/m 10,8 km/h (2 Bft) 2 min 0 min 9,7 km/h (2 Bft)
18.06.2011 14:48 22,5 C 18,0 C 4,6 UV-I 4,3 C 49 % 61 % 100 % 1004,9 hPa 0,0 l/m 9,6 km/h (2 Bft) 2 min 0 min 14,2 km/h (3 Bft)
18.06.2011 14:50 22,5 C 18,1 C 4,3 UV-I 4,2 C 49 % 59 % 100 % 1004,9 hPa 0,0 l/m 10,0 km/h (2 Bft) 2 min 0 min 11,3 km/h (2 Bft)
18.06.2011 14:52 22,6 C 18,1 C 4,3 UV-I 4,2 C 49 % 60 % 100 % 1004,9 hPa 0,0 l/m 10,4 km/h (2 Bft) 2 min 0 min 9,7 km/h (2 Bft)
18.06.2011 14:54 22,6 C 18,1 C 4,0 UV-I 4,0 C 49 % 59 % 100 % 1004,9 hPa 0,0 l/m 10,8 km/h (2 Bft) 2 min 0 min 8,7 km/h (2 Bft)
18.06.2011 14:56 22,6 C 18,0 C 4,0 UV-I 3,8 C 49 % 59 % 100 % 1004,9 hPa 0,0 l/m 10,4 km/h (2 Bft) 2 min 0 min 7,7 km/h (2 Bft)
18.06.2011 14:58 22,6 C 18,0 C 4,0 UV-I 3,5 C 49 % 59 % 100 % 1004,9 hPa 0,0 l/m 11,2 km/h (2 Bft) 2 min 0 min 9,0 km/h (2 Bft)
18.06.2011 15:00 22,6 C 18,0 C 3,6 UV-I 3,2 C 49 % 59 % 91 % 1004,9 hPa 0,0 l/m 10,8 km/h (2 Bft) 2 min 0 min 11,9 km/h (2 Bft)
18.06.2011 15:02 22,6 C 18,2 C 3,6 UV-I 3,4 C 49 % 60 % 97 % 1004,9 hPa 0,0 l/m 9,6 km/h (2 Bft) 2 min 0 min 9,0 km/h (2 Bft)
18.06.2011 15:04 22,7 C 18,5 C 6,0 UV-I 3,8 C 49 % 60 % 100 % 1004,9 hPa 0,0 l/m 9,6 km/h (2 Bft) 2 min 0 min 10,0 km/h (2 Bft)
18.06.2011 15:06 22,8 C 18,6 C 6,0 UV-I 4,2 C 48 % 58 % 100 % 1004,8 hPa 0,0 l/m 11,2 km/h (2 Bft) 2 min 0 min 40,6 km/h (6 Bft)
18.06.2011 15:08 22,8 C 18,7 C 6,0 UV-I 4,0 C 48 % 58 % 100 % 1004,8 hPa 0,0 l/m 11,2 km/h (2 Bft) 2 min 0 min 10,6 km/h (2 Bft)
18.06.2011 15:10 22,8 C 18,7 C 4,9 UV-I 4,0 C 48 % 58 % 100 % 1004,8 hPa 0,0 l/m 11,2 km/h (2 Bft) 2 min 0 min 10,9 km/h (2 Bft)
18.06.2011 15:12 22,8 C 18,8 C 4,9 UV-I 4,3 C 48 % 58 % 100 % 1004,8 hPa 0,0 l/m 11,6 km/h (2 Bft) 2 min 0 min 14,2 km/h (3 Bft)
18.06.2011 15:14 22,9 C 19,0 C 5,7 UV-I 4,4 C 48 % 58 % 100 % 1004,8 hPa 0,0 l/m 12,0 km/h (2 Bft) 2 min 0 min 10,9 km/h (2 Bft)
18.06.2011 15:16 23,0 C 19,1 C 5,7 UV-I 4,5 C 48 % 57 % 100 % 1004,8 hPa 0,0 l/m 12,0 km/h (2 Bft) 2 min 0 min 11,9 km/h (2 Bft)
18.06.2011 15:18 23,0 C 19,2 C 5,7 UV-I 4,7 C 48 % 57 % 100 % 1004,8 hPa 0,0 l/m 10,0 km/h (2 Bft) 2 min 0 min 7,4 km/h (2 Bft)
18.06.2011 15:20 23,1 C 19,3 C 6,3 UV-I 4,9 C 48 % 58 % 100 % 1004,8 hPa 0,0 l/m 9,6 km/h (2 Bft) 2 min 0 min 6,8 km/h (2 Bft)
18.06.2011 15:22 23,2 C 19,4 C 6,3 UV-I 5,1 C 48 % 57 % 100 % 1004,8 hPa 0,0 l/m 10,0 km/h (2 Bft) 2 min 0 min 13,2 km/h (3 Bft)
18.06.2011 15:24 23,2 C 19,5 C 6,3 UV-I 5,2 C 48 % 54 % 100 % 1004,8 hPa 0,0 l/m 10,8 km/h (2 Bft) 2 min 0 min 20,3 km/h (4 Bft)
18.06.2011 15:26 23,2 C 19,2 C 6,3 UV-I 5,4 C 48 % 55 % 100 % 1005,1 hPa 0,0 l/m 10,8 km/h (2 Bft) 2 min 0 min 15,4 km/h (3 Bft)
18.06.2011 15:28 23,2 C 19,2 C 6,3 UV-I 5,1 C 47 % 56 % 100 % 1005,1 hPa 0,0 l/m 10,4 km/h (2 Bft) 2 min 0 min 9,0 km/h (2 Bft)
18.06.2011 15:30 23,3 C 19,2 C 5,6 UV-I 5,1 C 47 % 55 % 100 % 1005,1 hPa 0,0 l/m 11,6 km/h (2 Bft) 2 min 0 min 14,2 km/h (3 Bft)
18.06.2011 15:32 23,2 C 19,2 C 5,6 UV-I 4,7 C 47 % 55 % 100 % 1005,1 hPa 0,0 l/m 12,0 km/h (2 Bft) 2 min 0 min 14,2 km/h (3 Bft)
18.06.2011 15:34 23,2 C 19,1 C 4,2 UV-I 4,0 C 47 % 55 % 100 % 1005,1 hPa 0,0 l/m 11,6 km/h (2 Bft) 2 min 0 min 8,7 km/h (2 Bft)
18.06.2011 15:36 23,2 C 19,2 C 4,2 UV-I 3,8 C 47 % 56 % 100 % 1005,1 hPa 0,0 l/m 11,2 km/h (2 Bft) 2 min 0 min 12,9 km/h (3 Bft)
18.06.2011 15:38 23,4 C 19,3 C 4,2 UV-I 4,2 C 47 % 57 % 100 % 1005,1 hPa 0,0 l/m 10,8 km/h (2 Bft) 2 min 0 min 10,3 km/h (2 Bft)
18.06.2011 15:40 23,5 C 19,5 C 6,6 UV-I 4,7 C 47 % 55 % 100 % 1005,1 hPa 0,0 l/m 11,2 km/h (2 Bft) 2 min 0 min 21,9 km/h (4 Bft)
18.06.2011 15:42 23,5 C 19,4 C 6,6 UV-I 4,8 C 47 % 53 % 100 % 1005,1 hPa 0,0 l/m 12,0 km/h (2 Bft) 2 min 0 min 11,6 km/h (2 Bft)
18.06.2011 15:44 23,5 C 19,3 C 5,3 UV-I 4,7 C 47 % 54 % 100 % 1005,1 hPa 0,0 l/m 12,8 km/h (3 Bft) 2 min 0 min 15,1 km/h (3 Bft)
18.06.2011 15:46 23,6 C 19,3 C 5,3 UV-I 4,2 C 47 % 52 % 100 % 1005,4 hPa 0,0 l/m 14,5 km/h (3 Bft) 2 min 0 min 23,2 km/h (4 Bft)
18.06.2011 15:48 23,6 C 19,1 C 5,3 UV-I 3,7 C 46 % 53 % 100 % 1005,4 hPa 0,0 l/m 15,3 km/h (3 Bft) 2 min 0 min 21,9 km/h (4 Bft)
18.06.2011 15:50 23,6 C 18,8 C 3,0 UV-I 3,3 C 46 % 54 % 94 % 1005,4 hPa 0,0 l/m 14,5 km/h (3 Bft) 2 min 0 min 13,8 km/h (3 Bft)
18.06.2011 15:52 23,6 C 18,8 C 3,0 UV-I 2,7 C 46 % 55 % 77 % 1005,4 hPa 0,0 l/m 13,3 km/h (3 Bft) 0 min 0 min 13,8 km/h (3 Bft)
18.06.2011 15:54 23,6 C 18,7 C 2,1 UV-I 2,2 C 46 % 53 % 63 % 1005,4 hPa 0,0 l/m 12,8 km/h (3 Bft) 0 min 0 min 15,1 km/h (3 Bft)
18.06.2011 15:56 23,6 C 18,4 C 2,1 UV-I 2,0 C 46 % 54 % 57 % 1005,4 hPa 0,0 l/m 11,6 km/h (2 Bft) 0 min 0 min 4,5 km/h (1 Bft)
18.06.2011 15:58 23,5 C 18,4 C 2,1 UV-I 1,5 C 46 % 54 % 43 % 1005,4 hPa 0,0 l/m 10,4 km/h (2 Bft) 0 min 0 min 10,3 km/h (2 Bft)
18.06.2011 16:00 23,6 C 18,3 C 1,4 UV-I 1,1 C 46 % 52 % 31 % 1005,4 hPa 0,0 l/m 12,8 km/h (3 Bft) 0 min 0 min 26,7 km/h (4 Bft)
18.06.2011 16:02 23,5 C 17,6 C 1,4 UV-I 1,1 C 45 % 53 % 31 % 1005,4 hPa 0,0 l/m 14,5 km/h (3 Bft) 0 min 0 min 12,6 km/h (3 Bft)
18.06.2011 16:04 23,5 C 17,1 C 0,7 UV-I 0,9 C 45 % 55 % 26 % 1005,4 hPa 0,0 l/m 14,5 km/h (3 Bft) 0 min 0 min 19,6 km/h (3 Bft)
18.06.2011 16:06 23,5 C 16,6 C 0,7 UV-I 0,7 C 45 % 57 % 20 % 1006,2 hPa 0,0 l/m 14,9 km/h (3 Bft) 0 min 0 min 6,8 km/h (2 Bft)
18.06.2011 16:08 23,5 C 16,4 C 0,7 UV-I 0,1 C 45 % 59 % 3 % 1006,2 hPa 0,0 l/m 16,9 km/h (3 Bft) 0 min 2 min 17,4 km/h (3 Bft)
18.06.2011 16:10 23,5 C 15,9 C 0,3 UV-I 0,0 C 45 % 64 % 0 % 1006,2 hPa 0,0 l/m 16,1 km/h (3 Bft) 0 min 2 min 10,0 km/h (2 Bft)
18.06.2011 16:12 23,4 C 15,1 C 0,3 UV-I 0,0 C 46 % 66 % 0 % 1006,2 hPa 1,1 l/m 15,7 km/h (3 Bft) 0 min 2 min 11,6 km/h (2 Bft)
18.06.2011 16:14 23,4 C 14,5 C 0,3 UV-I 0,0 C 46 % 69 % 0 % 1006,2 hPa 0,7 l/m 13,7 km/h (3 Bft) 0 min 2 min 13,8 km/h (3 Bft)
18.06.2011 16:16 23,4 C 14,1 C 0,3 UV-I 0,0 C 46 % 70 % 0 % 1006,2 hPa 0,0 l/m 12,4 km/h (3 Bft) 0 min 2 min 4,2 km/h (1 Bft)
18.06.2011 16:18 23,4 C 13,6 C 0,3 UV-I 0,0 C 46 % 71 % 0 % 1006,2 hPa 0,1 l/m 11,2 km/h (2 Bft) 0 min 2 min 6,1 km/h (2 Bft)
18.06.2011 16:20 23,4 C 13,5 C 0,5 UV-I 0,0 C 46 % 73 % 0 % 1006,2 hPa 0,1 l/m 9,2 km/h (2 Bft) 0 min 2 min 8,7 km/h (2 Bft)
18.06.2011 16:22 23,4 C 13,3 C 0,5 UV-I 0,0 C 46 % 74 % 0 % 1006,2 hPa 0,0 l/m 7,2 km/h (2 Bft) 0 min 2 min 4,2 km/h (1 Bft)
18.06.2011 16:24 23,2 C 13,2 C 0,7 UV-I 0,0 C 46 % 75 % 0 % 1006,2 hPa 0,0 l/m 5,2 km/h (1 Bft) 0 min 2 min 0,0 km/h (0 Bft)
18.06.2011 16:26 23,2 C 13,3 C 0,7 UV-I 0,0 C 47 % 75 % 0 % 1006,4 hPa 0,1 l/m 5,2 km/h (1 Bft) 0 min 2 min 13,5 km/h (3 Bft)
18.06.2011 16:28 23,2 C 13,1 C 0,7 UV-I 0,0 C 47 % 76 % 0 % 1006,4 hPa 0,0 l/m 4,4 km/h (1 Bft) 0 min 2 min 6,8 km/h (2 Bft)
18.06.2011 16:30 23,2 C 13,1 C 0,6 UV-I 0,0 C 47 % 77 % 0 % 1006,4 hPa 0,0 l/m 4,8 km/h (1 Bft) 0 min 2 min 7,4 km/h (2 Bft)
18.06.2011 16:32 23,3 C 13,1 C 0,6 UV-I 0,0 C 47 % 78 % 0 % 1006,4 hPa 0,0 l/m 5,2 km/h (1 Bft) 0 min 2 min 8,7 km/h (2 Bft)
18.06.2011 16:34 23,3 C 12,9 C 0,6 UV-I 0,0 C 47 % 78 % 0 % 1006,4 hPa 0,0 l/m 5,2 km/h (1 Bft) 0 min 2 min 6,8 km/h (2 Bft)
18.06.2011 16:36 23,2 C 12,8 C 0,6 UV-I 0,0 C 47 % 79 % 0 % 1006,4 hPa 0,0 l/m 5,6 km/h (1 Bft) 0 min 2 min 5,5 km/h (1 Bft)
18.06.2011 16:38 23,2 C 12,9 C 0,6 UV-I 0,0 C 47 % 80 % 0 % 1006,4 hPa 0,0 l/m 5,6 km/h (1 Bft) 0 min 2 min 6,8 km/h (2 Bft)
18.06.2011 16:40 23,2 C 12,8 C 0,8 UV-I 0,0 C 47 % 80 % 0 % 1006,4 hPa 0,0 l/m 5,6 km/h (1 Bft) 0 min 0 min 3,5 km/h (1 Bft)
18.06.2011 16:42 23,2 C 12,8 C 0,8 UV-I 0,0 C 47 % 80 % 0 % 1006,4 hPa 0,0 l/m 4,8 km/h (1 Bft) 0 min 0 min 0,0 km/h (0 Bft)
18.06.2011 16:44 23,2 C 12,9 C 1,7 UV-I 0,0 C 48 % 81 % 0 % 1006,4 hPa 0,0 l/m 4,8 km/h (1 Bft) 0 min 0 min 4,8 km/h (1 Bft)
18.06.2011 16:46 23,1 C 12,8 C 1,7 UV-I 0,0 C 48 % 81 % 0 % 1006,0 hPa 0,0 l/m 4,0 km/h (1 Bft) 0 min 0 min 3,5 km/h (1 Bft)
18.06.2011 16:48 23,1 C 13,0 C 1,7 UV-I 0,0 C 48 % 82 % 0 % 1006,0 hPa 0,0 l/m 4,0 km/h (1 Bft) 0 min 0 min 8,4 km/h (2 Bft)
18.06.2011 16:50 23,1 C 13,2 C 5,2 UV-I 0,2 C 48 % 83 % 6 % 1006,0 hPa 0,0 l/m 3,6 km/h (1 Bft) 0 min 0 min 6,8 km/h (2 Bft)
18.06.2011 16:52 23,1 C 13,4 C 5,2 UV-I 1,5 C 48 % 83 % 43 % 1006,0 hPa 0,0 l/m 4,0 km/h (1 Bft) 0 min 0 min 14,5 km/h (3 Bft)
18.06.2011 16:54 23,2 C 13,6 C 7,1 UV-I 2,1 C 48 % 83 % 60 % 1006,0 hPa 0,0 l/m 4,8 km/h (1 Bft) 0 min 0 min 6,4 km/h (2 Bft)
18.06.2011 16:56 23,2 C 13,6 C 7,1 UV-I 3,0 C 49 % 83 % 86 % 1006,0 hPa 0,0 l/m 5,2 km/h (1 Bft) 2 min 0 min 3,2 km/h (1 Bft)
18.06.2011 16:58 23,2 C 13,9 C 7,1 UV-I 3,2 C 49 % 84 % 91 % 1006,0 hPa 0,0 l/m 5,6 km/h (1 Bft) 2 min 0 min 6,4 km/h (2 Bft)
18.06.2011 17:00 23,1 C 14,0 C 7,1 UV-I 3,7 C 49 % 83 % 100 % 1006,0 hPa 0,0 l/m 6,4 km/h (2 Bft) 2 min 0 min 7,4 km/h (2 Bft)
18.06.2011 17:02 23,2 C 14,3 C 7,1 UV-I 3,9 C 49 % 83 % 100 % 1006,0 hPa 0,0 l/m 6,4 km/h (2 Bft) 2 min 0 min 10,3 km/h (2 Bft)
18.06.2011 17:04 23,2 C 14,3 C 8,7 UV-I 4,4 C 49 % 83 % 100 % 1006,0 hPa 0,0 l/m 6,8 km/h (2 Bft) 2 min 0 min 12,9 km/h (3 Bft)
18.06.2011 17:06 23,2 C 14,5 C 8,7 UV-I 4,6 C 49 % 83 % 100 % 1006,1 hPa 0,0 l/m 6,0 km/h (2 Bft) 2 min 0 min 5,5 km/h (1 Bft)
18.06.2011 17:08 23,2 C 14,7 C 8,7 UV-I 4,9 C 49 % 83 % 100 % 1006,1 hPa 0,0 l/m 6,8 km/h (2 Bft) 2 min 0 min 5,1 km/h (1 Bft)
18.06.2011 17:10 23,2 C 14,8 C 7,0 UV-I 5,0 C 49 % 82 % 100 % 1006,1 hPa 0,0 l/m 6,4 km/h (2 Bft) 2 min 0 min 10,3 km/h (2 Bft)
18.06.2011 17:12 23,3 C 14,8 C 7,0 UV-I 4,8 C 49 % 81 % 100 % 1006,1 hPa 0,0 l/m 6,8 km/h (2 Bft) 2 min 0 min 6,1 km/h (2 Bft)
18.06.2011 17:14 23,2 C 14,8 C 5,0 UV-I 4,6 C 49 % 81 % 100 % 1006,1 hPa 0,0 l/m 6,8 km/h (2 Bft) 2 min 0 min 9,0 km/h (2 Bft)
18.06.2011 17:16 23,2 C 14,8 C 5,0 UV-I 4,3 C 49 % 81 % 100 % 1006,1 hPa 0,0 l/m 6,8 km/h (2 Bft) 2 min 0 min 5,8 km/h (2 Bft)
18.06.2011 17:18 23,2 C 14,9 C 5,0 UV-I 3,8 C 49 % 81 % 100 % 1006,1 hPa 0,0 l/m 7,2 km/h (2 Bft) 2 min 0 min 7,1 km/h (2 Bft)
18.06.2011 17:20 23,2 C 15,1 C 5,4 UV-I 3,5 C 49 % 81 % 100 % 1006,1 hPa 0,0 l/m 7,6 km/h (2 Bft) 2 min 0 min 16,1 km/h (3 Bft)
18.06.2011 17:22 23,4 C 15,2 C 5,4 UV-I 3,9 C 49 % 80 % 100 % 1006,1 hPa 0,0 l/m 7,2 km/h (2 Bft) 2 min 0 min 5,5 km/h (1 Bft)
18.06.2011 17:24 23,4 C 15,2 C 8,5 UV-I 4,4 C 49 % 79 % 100 % 1006,1 hPa 0,0 l/m 7,2 km/h (2 Bft) 2 min 0 min 5,1 km/h (1 Bft)
18.06.2011 17:26 23,4 C 15,3 C 8,5 UV-I 4,7 C 49 % 78 % 100 % 1006,0 hPa 0,0 l/m 6,8 km/h (2 Bft) 2 min 0 min 7,1 km/h (2 Bft)
18.06.2011 17:28 23,4 C 15,4 C 8,5 UV-I 4,8 C 49 % 78 % 100 % 1006,0 hPa 0,0 l/m 7,2 km/h (2 Bft) 2 min 0 min 7,7 km/h (2 Bft)
18.06.2011 17:30 23,4 C 15,5 C 7,4 UV-I 4,7 C 49 % 78 % 100 % 1006,0 hPa 0,0 l/m 7,2 km/h (2 Bft) 2 min 0 min 5,8 km/h (2 Bft)
18.06.2011 17:32 23,5 C 15,6 C 7,4 UV-I 4,7 C 49 % 77 % 100 % 1006,0 hPa 0,0 l/m 7,2 km/h (2 Bft) 2 min 0 min 7,7 km/h (2 Bft)
18.06.2011 17:34 23,5 C 15,7 C 6,1 UV-I 4,7 C 49 % 77 % 100 % 1006,0 hPa 0,0 l/m 7,2 km/h (2 Bft) 2 min 0 min 6,1 km/h (2 Bft)
18.06.2011 17:36 23,5 C 15,9 C 6,1 UV-I 4,5 C 49 % 76 % 100 % 1006,0 hPa 0,0 l/m 7,2 km/h (2 Bft) 2 min 0 min 0,0 km/h (0 Bft)
18.06.2011 17:38 23,5 C 15,9 C 6,1 UV-I 4,6 C 49 % 75 % 100 % 1006,0 hPa 0,0 l/m 6,8 km/h (2 Bft) 2 min 0 min 15,8 km/h (3 Bft)
18.06.2011 17:40 23,5 C 15,9 C 4,8 UV-I 4,4 C 49 % 75 % 100 % 1006,0 hPa 0,0 l/m 7,2 km/h (2 Bft) 2 min 0 min 15,1 km/h (3 Bft)
18.06.2011 17:42 23,5 C 15,9 C 4,8 UV-I 4,3 C 49 % 75 % 100 % 1006,0 hPa 0,0 l/m 7,2 km/h (2 Bft) 2 min 0 min 3,5 km/h (1 Bft)
18.06.2011 17:44 23,5 C 15,9 C 3,5 UV-I 3,9 C 48 % 75 % 100 % 1006,0 hPa 0,0 l/m 6,8 km/h (2 Bft) 2 min 0 min 5,5 km/h (1 Bft)
18.06.2011 17:46 23,5 C 15,8 C 3,5 UV-I 3,4 C 48 % 74 % 97 % 1006,1 hPa 0,0 l/m 7,2 km/h (2 Bft) 2 min 0 min 13,8 km/h (3 Bft)
18.06.2011 17:48 23,5 C 15,8 C 3,5 UV-I 3,1 C 48 % 74 % 89 % 1006,1 hPa 0,0 l/m 7,2 km/h (2 Bft) 2 min 0 min 10,0 km/h (2 Bft)
18.06.2011 17:50 23,5 C 15,9 C 2,7 UV-I 2,7 C 48 % 74 % 77 % 1006,1 hPa 0,0 l/m 7,6 km/h (2 Bft) 0 min 0 min 9,3 km/h (2 Bft)
18.06.2011 17:52 23,5 C 15,8 C 2,7 UV-I 2,9 C 48 % 74 % 83 % 1006,1 hPa 0,0 l/m 7,2 km/h (2 Bft) 2 min 0 min 5,8 km/h (2 Bft)
18.06.2011 17:54 23,6 C 16,0 C 3,1 UV-I 3,0 C 48 % 74 % 86 % 1006,1 hPa 0,0 l/m 7,2 km/h (2 Bft) 2 min 0 min 15,4 km/h (3 Bft)
18.06.2011 17:56 23,6 C 16,0 C 3,1 UV-I 3,4 C 48 % 73 % 97 % 1006,1 hPa 0,0 l/m 7,2 km/h (2 Bft) 2 min 0 min 6,4 km/h (2 Bft)
18.06.2011 17:58 23,6 C 16,1 C 3,1 UV-I 3,9 C 48 % 74 % 100 % 1006,1 hPa 0,0 l/m 7,2 km/h (2 Bft) 2 min 0 min 9,0 km/h (2 Bft)
18.06.2011 18:00 23,6 C 16,2 C 3,3 UV-I 4,3 C 48 % 73 % 100 % 1006,1 hPa 0,0 l/m 7,6 km/h (2 Bft) 2 min 0 min 8,0 km/h (2 Bft)
18.06.2011 18:02 23,6 C 16,3 C 3,3 UV-I 4,4 C 48 % 73 % 100 % 1006,1 hPa 0,0 l/m 6,8 km/h (2 Bft) 2 min 0 min 4,5 km/h (1 Bft)
18.06.2011 18:04 23,6 C 16,3 C 2,5 UV-I 4,1 C 48 % 72 % 100 % 1006,1 hPa 0,0 l/m 7,6 km/h (2 Bft) 2 min 0 min 16,4 km/h (3 Bft)
18.06.2011 18:06 23,6 C 16,2 C 2,5 UV-I 3,7 C 48 % 71 % 100 % 1006,1 hPa 0,0 l/m 8,0 km/h (2 Bft) 2 min 0 min 12,9 km/h (3 Bft)
18.06.2011 18:08 23,6 C 16,3 C 2,5 UV-I 3,2 C 48 % 69 % 91 % 1006,1 hPa 0,0 l/m 8,4 km/h (2 Bft) 2 min 0 min 8,4 km/h (2 Bft)
18.06.2011 18:10 23,6 C 16,2 C 2,1 UV-I 3,0 C 48 % 69 % 86 % 1006,1 hPa 0,0 l/m 8,8 km/h (2 Bft) 2 min 0 min 10,0 km/h (2 Bft)
18.06.2011 18:12 23,6 C 16,3 C 2,1 UV-I 2,8 C 48 % 69 % 80 % 1006,1 hPa 0,0 l/m 9,6 km/h (2 Bft) 0 min 0 min 7,4 km/h (2 Bft)
18.06.2011 18:14 23,6 C 16,5 C 2,5 UV-I 2,6 C 48 % 68 % 74 % 1006,1 hPa 0,0 l/m 10,0 km/h (2 Bft) 0 min 0 min 9,7 km/h (2 Bft)
18.06.2011 18:16 23,6 C 16,5 C 2,5 UV-I 2,9 C 48 % 68 % 83 % 1006,1 hPa 0,0 l/m 10,8 km/h (2 Bft) 2 min 0 min 16,4 km/h (3 Bft)
18.06.2011 18:18 23,6 C 16,5 C 2,5 UV-I 3,2 C 47 % 68 % 91 % 1006,1 hPa 0,0 l/m 10,4 km/h (2 Bft) 2 min 0 min 11,9 km/h (2 Bft)
18.06.2011 18:20 23,6 C 16,6 C 2,5 UV-I 3,4 C 47 % 67 % 97 % 1006,1 hPa 0,0 l/m 10,4 km/h (2 Bft) 2 min 0 min 6,4 km/h (2 Bft)
18.06.2011 18:22 23,6 C 16,6 C 2,5 UV-I 3,4 C 47 % 68 % 97 % 1006,1 hPa 0,0 l/m 10,8 km/h (2 Bft) 2 min 0 min 7,7 km/h (2 Bft)
18.06.2011 18:24 23,6 C 16,7 C 2,3 UV-I 3,1 C 47 % 68 % 89 % 1006,1 hPa 0,0 l/m 10,4 km/h (2 Bft) 2 min 0 min 4,5 km/h (1 Bft)
18.06.2011 18:26 23,6 C 16,7 C 2,3 UV-I 3,1 C 47 % 68 % 89 % 1005,8 hPa 0,0 l/m 10,4 km/h (2 Bft) 2 min 0 min 6,1 km/h (2 Bft)
18.06.2011 18:28 23,6 C 16,7 C 2,3 UV-I 3,1 C 47 % 67 % 89 % 1005,8 hPa 0,0 l/m 9,2 km/h (2 Bft) 2 min 0 min 3,9 km/h (1 Bft)
18.06.2011 18:30 23,6 C 16,8 C 2,1 UV-I 2,9 C 47 % 67 % 83 % 1005,8 hPa 0,0 l/m 8,4 km/h (2 Bft) 2 min 0 min 12,6 km/h (3 Bft)
18.06.2011 18:32 23,6 C 16,8 C 2,1 UV-I 2,7 C 47 % 66 % 77 % 1005,8 hPa 0,0 l/m 8,4 km/h (2 Bft) 0 min 0 min 10,0 km/h (2 Bft)
18.06.2011 18:34 23,6 C 16,8 C 1,9 UV-I 2,5 C 47 % 65 % 71 % 1005,8 hPa 0,0 l/m 8,8 km/h (2 Bft) 0 min 0 min 11,9 km/h (2 Bft)
18.06.2011 18:36 23,6 C 16,9 C 1,9 UV-I 2,6 C 47 % 64 % 74 % 1005,8 hPa 0,0 l/m 8,8 km/h (2 Bft) 0 min 0 min 12,2 km/h (2 Bft)
18.06.2011 18:38 23,6 C 17,0 C 1,9 UV-I 2,5 C 47 % 65 % 71 % 1005,8 hPa 0,0 l/m 8,8 km/h (2 Bft) 0 min 0 min 6,1 km/h (2 Bft)
18.06.2011 18:40 23,5 C 17,0 C 2,1 UV-I 2,3 C 47 % 64 % 66 % 1005,8 hPa 0,0 l/m 9,6 km/h (2 Bft) 0 min 0 min 10,0 km/h (2 Bft)
18.06.2011 18:42 23,5 C 17,0 C 2,1 UV-I 2,0 C 47 % 64 % 57 % 1005,8 hPa 0,0 l/m 9,2 km/h (2 Bft) 0 min 0 min 6,1 km/h (2 Bft)
18.06.2011 18:44 23,5 C 17,0 C 2,0 UV-I 1,8 C 47 % 64 % 51 % 1005,8 hPa 0,0 l/m 9,6 km/h (2 Bft) 0 min 0 min 17,7 km/h (3 Bft)
18.06.2011 18:46 23,5 C 17,0 C 2,0 UV-I 1,5 C 47 % 64 % 43 % 1006,2 hPa 0,0 l/m 9,6 km/h (2 Bft) 0 min 0 min 5,5 km/h (1 Bft)
18.06.2011 18:48 23,5 C 16,9 C 2,0 UV-I 1,4 C 47 % 64 % 40 % 1006,2 hPa 0,0 l/m 8,4 km/h (2 Bft) 0 min 0 min 8,0 km/h (2 Bft)
18.06.2011 18:50 23,4 C 16,9 C 1,4 UV-I 1,2 C 47 % 63 % 34 % 1006,2 hPa 0,0 l/m 9,2 km/h (2 Bft) 0 min 0 min 11,3 km/h (2 Bft)
18.06.2011 18:52 23,4 C 16,8 C 1,4 UV-I 1,0 C 47 % 63 % 29 % 1006,2 hPa 0,0 l/m 9,2 km/h (2 Bft) 0 min 0 min 6,8 km/h (2 Bft)
18.06.2011 18:54 23,4 C 16,9 C 1,4 UV-I 0,8 C 47 % 63 % 23 % 1006,2 hPa 0,0 l/m 9,2 km/h (2 Bft) 0 min 0 min 12,9 km/h (3 Bft)
18.06.2011 18:56 23,4 C 16,8 C 1,4 UV-I 0,9 C 47 % 63 % 26 % 1006,2 hPa 0,0 l/m 8,8 km/h (2 Bft) 0 min 0 min 6,1 km/h (2 Bft)
18.06.2011 18:58 23,4 C 16,8 C 1,4 UV-I 1,0 C 47 % 63 % 29 % 1006,2 hPa 0,0 l/m 9,2 km/h (2 Bft) 0 min 0 min 6,1 km/h (2 Bft)
18.06.2011 19:00 23,4 C 16,9 C 1,9 UV-I 0,9 C 47 % 64 % 26 % 1006,2 hPa 0,0 l/m 8,4 km/h (2 Bft) 0 min 0 min 0,0 km/h (0 Bft)
18.06.2011 19:02 23,4 C 16,9 C 1,9 UV-I 1,1 C 47 % 64 % 31 % 1006,2 hPa 0,0 l/m 7,2 km/h (2 Bft) 0 min 0 min 7,1 km/h (2 Bft)
18.06.2011 19:04 23,4 C 17,0 C 1,8 UV-I 1,0 C 47 % 64 % 29 % 1006,2 hPa 0,0 l/m 7,2 km/h (2 Bft) 0 min 0 min 6,4 km/h (2 Bft)
18.06.2011 19:06 23,4 C 16,9 C 1,8 UV-I 1,0 C 47 % 64 % 29 % 1005,8 hPa 0,0 l/m 5,2 km/h (1 Bft) 0 min 0 min 0,0 km/h (0 Bft)
18.06.2011 19:08 23,4 C 16,9 C 1,8 UV-I 0,9 C 47 % 64 % 26 % 1005,8 hPa 0,0 l/m 5,2 km/h (1 Bft) 0 min 0 min 9,3 km/h (2 Bft)
18.06.2011 19:10 23,2 C 16,9 C 1,6 UV-I 0,7 C 47 % 64 % 20 % 1005,8 hPa 0,0 l/m 5,2 km/h (1 Bft) 0 min 0 min 6,1 km/h (2 Bft)
18.06.2011 19:12 23,2 C 16,8 C 1,6 UV-I 0,5 C 47 % 64 % 14 % 1005,8 hPa 0,0 l/m 5,6 km/h (1 Bft) 0 min 0 min 3,5 km/h (1 Bft)
18.06.2011 19:14 23,2 C 16,8 C 1,4 UV-I 0,4 C 47 % 65 % 11 % 1005,8 hPa 0,0 l/m 5,2 km/h (1 Bft) 0 min 0 min 11,3 km/h (2 Bft)
18.06.2011 19:16 23,2 C 16,8 C 1,4 UV-I 0,3 C 47 % 63 % 9 % 1005,8 hPa 0,0 l/m 6,0 km/h (2 Bft) 0 min 0 min 8,0 km/h (2 Bft)
18.06.2011 19:18 23,2 C 16,8 C 1,4 UV-I 0,3 C 47 % 63 % 9 % 1005,8 hPa 0,0 l/m 6,8 km/h (2 Bft) 0 min 0 min 6,4 km/h (2 Bft)
18.06.2011 19:20 23,2 C 16,8 C 1,2 UV-I 0,3 C 47 % 63 % 9 % 1005,8 hPa 0,0 l/m 6,4 km/h (2 Bft) 0 min 0 min 13,2 km/h (3 Bft)
18.06.2011 19:22 23,2 C 16,8 C 1,2 UV-I 0,3 C 47 % 63 % 9 % 1005,8 hPa 0,0 l/m 7,2 km/h (2 Bft) 0 min 0 min 10,9 km/h (2 Bft)
18.06.2011 19:24 23,2 C 16,7 C 1,2 UV-I 0,2 C 47 % 63 % 6 % 1005,8 hPa 0,0 l/m 7,2 km/h (2 Bft) 0 min 0 min 8,0 km/h (2 Bft)
18.06.2011 19:26 23,2 C 16,7 C 1,2 UV-I 0,1 C 47 % 63 % 3 % 1005,6 hPa 0,0 l/m 8,0 km/h (2 Bft) 0 min 0 min 10,9 km/h (2 Bft)
18.06.2011 19:28 23,2 C 16,6 C 1,2 UV-I 0,1 C 47 % 63 % 3 % 1005,6 hPa 0,0 l/m 7,6 km/h (2 Bft) 0 min 0 min 8,0 km/h (2 Bft)
18.06.2011 19:30 23,2 C 16,7 C 1,1 UV-I 0,0 C 47 % 63 % 0 % 1005,6 hPa 0,0 l/m 8,4 km/h (2 Bft) 0 min 0 min 14,5 km/h (3 Bft)
18.06.2011 19:32 23,2 C 16,6 C 1,1 UV-I 0,0 C 47 % 63 % 0 % 1005,6 hPa 0,0 l/m 8,0 km/h (2 Bft) 0 min 0 min 10,9 km/h (2 Bft)
18.06.2011 19:34 23,2 C 16,7 C 1,3 UV-I 0,0 C 47 % 63 % 0 % 1005,6 hPa 0,0 l/m 10,0 km/h (2 Bft) 0 min 0 min 9,0 km/h (2 Bft)
18.06.2011 19:36 23,1 C 16,6 C 1,3 UV-I 0,0 C 47 % 63 % 0 % 1005,6 hPa 0,0 l/m 9,2 km/h (2 Bft) 0 min 0 min 3,5 km/h (1 Bft)
18.06.2011 19:38 23,1 C 16,7 C 1,3 UV-I 0,0 C 47 % 64 % 0 % 1005,6 hPa 0,0 l/m 8,4 km/h (2 Bft) 0 min 0 min 9,7 km/h (2 Bft)
18.06.2011 19:40 23,1 C 16,6 C 1,4 UV-I 0,0 C 47 % 63 % 0 % 1005,6 hPa 0,0 l/m 9,2 km/h (2 Bft) 0 min 0 min 7,4 km/h (2 Bft)
18.06.2011 19:42 23,1 C 16,6 C 1,4 UV-I 0,0 C 47 % 64 % 0 % 1005,6 hPa 0,0 l/m 8,0 km/h (2 Bft) 0 min 0 min 6,4 km/h (2 Bft)
18.06.2011 19:44 23,1 C 16,7 C 1,2 UV-I 0,0 C 47 % 64 % 0 % 1005,6 hPa 0,0 l/m 6,8 km/h (2 Bft) 0 min 0 min 9,0 km/h (2 Bft)
18.06.2011 19:46 23,0 C 16,7 C 1,2 UV-I 0,0 C 47 % 64 % 0 % 1005,6 hPa 0,0 l/m 6,8 km/h (2 Bft) 0 min 0 min 11,9 km/h (2 Bft)
18.06.2011 19:48 23,0 C 16,7 C 1,2 UV-I 0,0 C 47 % 64 % 0 % 1005,6 hPa 0,0 l/m 7,2 km/h (2 Bft) 0 min 0 min 6,4 km/h (2 Bft)
18.06.2011 19:50 23,0 C 16,8 C 1,1 UV-I 0,0 C 47 % 64 % 0 % 1005,6 hPa 0,0 l/m 7,2 km/h (2 Bft) 0 min 0 min 5,5 km/h (1 Bft)
18.06.2011 19:52 23,0 C 16,8 C 1,1 UV-I 0,0 C 47 % 63 % 0 % 1005,6 hPa 0,0 l/m 7,2 km/h (2 Bft) 0 min 0 min 7,7 km/h (2 Bft)
18.06.2011 19:54 23,0 C 16,8 C 1,2 UV-I 0,0 C 47 % 63 % 0 % 1005,6 hPa 0,0 l/m 8,0 km/h (2 Bft) 0 min 0 min 12,6 km/h (3 Bft)
18.06.2011 19:56 22,9 C 16,7 C 1,2 UV-I 0,0 C 47 % 63 % 0 % 1005,6 hPa 0,0 l/m 7,6 km/h (2 Bft) 0 min 0 min 4,5 km/h (1 Bft)
18.06.2011 19:58 22,9 C 16,8 C 1,2 UV-I 0,0 C 47 % 63 % 0 % 1005,6 hPa 0,0 l/m 8,4 km/h (2 Bft) 0 min 0 min 12,6 km/h (3 Bft)
18.06.2011 20:00 22,9 C 16,8 C 1,1 UV-I 0,0 C 47 % 62 % 0 % 1005,6 hPa 0,0 l/m 8,8 km/h (2 Bft) 0 min 0 min 16,1 km/h (3 Bft)
18.06.2011 20:02 22,9 C 16,7 C 1,1 UV-I 0,0 C 47 % 60 % 0 % 1005,6 hPa 0,0 l/m 10,0 km/h (2 Bft) 0 min 0 min 22,2 km/h (4 Bft)
18.06.2011 20:04 22,9 C 16,7 C 1,1 UV-I 0,0 C 47 % 60 % 0 % 1005,6 hPa 0,0 l/m 9,6 km/h (2 Bft) 0 min 0 min 14,2 km/h (3 Bft)
18.06.2011 20:06 22,8 C 16,7 C 1,1 UV-I 0,0 C 47 % 60 % 0 % 1005,4 hPa 0,0 l/m 10,0 km/h (2 Bft) 0 min 0 min 8,7 km/h (2 Bft)
18.06.2011 20:08 22,8 C 16,7 C 1,1 UV-I 0,0 C 47 % 60 % 0 % 1005,4 hPa 0,0 l/m 10,4 km/h (2 Bft) 0 min 0 min 5,8 km/h (2 Bft)
18.06.2011 20:10 22,8 C 16,5 C 1,0 UV-I 0,0 C 47 % 61 % 0 % 1005,4 hPa 0,0 l/m 10,0 km/h (2 Bft) 0 min 0 min 9,3 km/h (2 Bft)
18.06.2011 20:12 22,8 C 16,4 C 1,0 UV-I 0,0 C 47 % 61 % 0 % 1005,4 hPa 0,0 l/m 9,2 km/h (2 Bft) 0 min 0 min 16,4 km/h (3 Bft)
18.06.2011 20:14 22,8 C 16,4 C 0,9 UV-I 0,0 C 47 % 61 % 0 % 1005,4 hPa 0,0 l/m 9,2 km/h (2 Bft) 0 min 0 min 8,4 km/h (2 Bft)
18.06.2011 20:16 22,8 C 16,5 C 0,9 UV-I 0,0 C 47 % 61 % 0 % 1005,4 hPa 0,0 l/m 8,0 km/h (2 Bft) 0 min 0 min 8,4 km/h (2 Bft)
18.06.2011 20:18 22,8 C 16,3 C 0,9 UV-I 0,0 C 47 % 62 % 0 % 1005,4 hPa 0,0 l/m 7,2 km/h (2 Bft) 0 min 0 min 5,5 km/h (1 Bft)
18.06.2011 20:20 22,8 C 16,3 C 0,8 UV-I 0,0 C 47 % 62 % 0 % 1005,4 hPa 0,0 l/m 7,2 km/h (2 Bft) 0 min 0 min 9,0 km/h (2 Bft)
18.06.2011 20:22 22,7 C 16,2 C 0,8 UV-I 0,0 C 47 % 62 % 0 % 1005,4 hPa 0,0 l/m 7,2 km/h (2 Bft) 0 min 0 min 3,9 km/h (1 Bft)
18.06.2011 20:24 22,7 C 16,2 C 0,8 UV-I 0,0 C 47 % 62 % 0 % 1005,4 hPa 0,0 l/m 6,8 km/h (2 Bft) 0 min 0 min 7,7 km/h (2 Bft)
18.06.2011 20:26 22,7 C 16,2 C 0,8 UV-I 0,0 C 47 % 62 % 0 % 1005,3 hPa 0,0 l/m 6,4 km/h (2 Bft) 0 min 0 min 4,2 km/h (1 Bft)
18.06.2011 20:28 22,7 C 16,3 C 0,8 UV-I 0,0 C 47 % 63 % 0 % 1005,3 hPa 0,0 l/m 6,4 km/h (2 Bft) 0 min 0 min 8,7 km/h (2 Bft)
18.06.2011 20:30 22,6 C 16,3 C 0,7 UV-I 0,0 C 47 % 63 % 0 % 1005,3 hPa 0,0 l/m 5,6 km/h (1 Bft) 0 min 0 min 4,8 km/h (1 Bft)
18.06.2011 20:32 22,6 C 16,1 C 0,7 UV-I 0,0 C 47 % 63 % 0 % 1005,3 hPa 0,0 l/m 4,0 km/h (1 Bft) 0 min 0 min 0,0 km/h (0 Bft)
18.06.2011 20:34 22,6 C 16,1 C 0,7 UV-I 0,0 C 47 % 64 % 0 % 1005,3 hPa 0,0 l/m 3,6 km/h (1 Bft) 0 min 0 min 6,4 km/h (2 Bft)
18.06.2011 20:36 22,6 C 16,1 C 0,7 UV-I 0,0 C 47 % 64 % 0 % 1005,3 hPa 0,0 l/m 2,8 km/h (1 Bft) 0 min 0 min 0,0 km/h (0 Bft)
18.06.2011 20:38 22,6 C 16,1 C 0,7 UV-I 0,0 C 47 % 64 % 0 % 1005,3 hPa 0,0 l/m 2,8 km/h (1 Bft) 0 min 0 min 4,5 km/h (1 Bft)
18.06.2011 20:40 22,6 C 16,0 C 0,6 UV-I 0,0 C 47 % 65 % 0 % 1005,3 hPa 0,0 l/m 2,4 km/h (1 Bft) 0 min 0 min 4,5 km/h (1 Bft)
18.06.2011 20:42 22,6 C 15,9 C 0,6 UV-I 0,0 C 47 % 65 % 0 % 1005,3 hPa 0,0 l/m 2,4 km/h (1 Bft) 0 min 0 min 3,2 km/h (1 Bft)
18.06.2011 20:44 22,5 C 15,8 C 0,6 UV-I 0,0 C 47 % 65 % 0 % 1005,3 hPa 0,0 l/m 2,8 km/h (1 Bft) 0 min 0 min 9,0 km/h (2 Bft)
18.06.2011 20:46 22,5 C 15,8 C 0,6 UV-I 0,0 C 47 % 65 % 0 % 1005,2 hPa 0,0 l/m 2,4 km/h (1 Bft) 0 min 0 min 3,9 km/h (1 Bft)
18.06.2011 20:48 22,5 C 15,9 C 0,6 UV-I 0,0 C 47 % 65 % 0 % 1005,2 hPa 0,0 l/m 3,6 km/h (1 Bft) 0 min 0 min 7,4 km/h (2 Bft)
18.06.2011 20:50 22,5 C 15,7 C 0,5 UV-I 0,0 C 47 % 66 % 0 % 1005,2 hPa 0,0 l/m 3,6 km/h (1 Bft) 0 min 0 min 0,0 km/h (0 Bft)
18.06.2011 20:52 22,5 C 15,7 C 0,5 UV-I 0,0 C 47 % 66 % 0 % 1005,2 hPa 0,0 l/m 4,0 km/h (1 Bft) 0 min 0 min 4,5 km/h (1 Bft)
18.06.2011 20:54 22,5 C 15,7 C 0,4 UV-I 0,0 C 47 % 66 % 0 % 1005,2 hPa 0,0 l/m 4,4 km/h (1 Bft) 0 min 0 min 5,5 km/h (1 Bft)
18.06.2011 20:56 22,4 C 15,7 C 0,4 UV-I 0,0 C 48 % 66 % 0 % 1005,2 hPa 0,0 l/m 4,4 km/h (1 Bft) 0 min 0 min 8,0 km/h (2 Bft)
18.06.2011 20:58 22,4 C 15,7 C 0,4 UV-I 0,0 C 48 % 66 % 0 % 1005,2 hPa 0,0 l/m 4,4 km/h (1 Bft) 0 min 0 min 5,5 km/h (1 Bft)
18.06.2011 21:00 22,4 C 15,6 C 0,4 UV-I 0,0 C 48 % 66 % 0 % 1005,2 hPa 0,0 l/m 3,6 km/h (1 Bft) 0 min 0 min 5,8 km/h (2 Bft)
18.06.2011 21:02 22,4 C 15,6 C 0,4 UV-I 0,0 C 48 % 67 % 0 % 1005,2 hPa 0,0 l/m 4,4 km/h (1 Bft) 0 min 0 min 0,0 km/h (0 Bft)
18.06.2011 21:04 22,4 C 15,7 C 0,4 UV-I 0,0 C 48 % 67 % 0 % 1005,2 hPa 0,0 l/m 3,6 km/h (1 Bft) 0 min 0 min 3,2 km/h (1 Bft)
18.06.2011 21:06 22,4 C 15,6 C 0,4 UV-I 0,0 C 48 % 67 % 0 % 1005,5 hPa 0,0 l/m 3,2 km/h (1 Bft) 0 min 0 min 7,7 km/h (2 Bft)
18.06.2011 21:08 22,4 C 15,6 C 0,4 UV-I 0,0 C 48 % 67 % 0 % 1005,5 hPa 0,0 l/m 3,2 km/h (1 Bft) 0 min 0 min 0,0 km/h (0 Bft)
18.06.2011 21:10 22,4 C 15,6 C 0,3 UV-I 0,0 C 48 % 67 % 0 % 1005,5 hPa 0,0 l/m 3,2 km/h (1 Bft) 0 min 0 min 10,6 km/h (2 Bft)
18.06.2011 21:12 22,4 C 15,6 C 0,3 UV-I 0,0 C 48 % 67 % 0 % 1005,5 hPa 0,0 l/m 2,8 km/h (1 Bft) 0 min 0 min 6,4 km/h (2 Bft)
18.06.2011 21:14 22,2 C 15,6 C 0,2 UV-I 0,0 C 48 % 67 % 0 % 1005,5 hPa 0,0 l/m 2,8 km/h (1 Bft) 0 min 0 min 0,0 km/h (0 Bft)
18.06.2011 21:16 22,3 C 15,6 C 0,2 UV-I 0,0 C 48 % 67 % 0 % 1005,5 hPa 0,0 l/m 2,8 km/h (1 Bft) 0 min 0 min 0,0 km/h (0 Bft)
18.06.2011 21:18 22,3 C 15,6 C 0,2 UV-I 0,0 C 48 % 67 % 0 % 1005,5 hPa 0,0 l/m 2,4 km/h (1 Bft) 0 min 0 min 5,1 km/h (1 Bft)
18.06.2011 21:20 22,3 C 15,6 C 0,2 UV-I 0,0 C 48 % 67 % 0 % 1005,5 hPa 0,0 l/m 3,2 km/h (1 Bft) 0 min 0 min 5,8 km/h (2 Bft)
18.06.2011 21:22 22,2 C 15,6 C 0,2 UV-I 0,0 C 48 % 66 % 0 % 1005,5 hPa 0,0 l/m 4,8 km/h (1 Bft) 0 min 0 min 10,3 km/h (2 Bft)
18.06.2011 21:24 22,2 C 15,7 C 0,2 UV-I 0,0 C 48 % 65 % 0 % 1005,5 hPa 0,0 l/m 5,6 km/h (1 Bft) 0 min 0 min 5,5 km/h (1 Bft)
18.06.2011 21:26 22,2 C 15,6 C 0,2 UV-I 0,0 C 48 % 65 % 0 % 1005,8 hPa 0,0 l/m 6,8 km/h (2 Bft) 0 min 0 min 7,4 km/h (2 Bft)
18.06.2011 21:28 22,2 C 15,6 C 0,2 UV-I 0,0 C 48 % 64 % 0 % 1005,8 hPa 0,0 l/m 7,6 km/h (2 Bft) 0 min 0 min 14,2 km/h (3 Bft)
18.06.2011 21:30 22,2 C 15,6 C 0,1 UV-I 0,0 C 48 % 63 % 0 % 1005,8 hPa 0,0 l/m 9,2 km/h (2 Bft) 0 min 0 min 25,1 km/h (4 Bft)
18.06.2011 21:32 22,2 C 15,6 C 0,1 UV-I 0,0 C 48 % 63 % 0 % 1005,8 hPa 0,0 l/m 9,2 km/h (2 Bft) 0 min 0 min 4,2 km/h (1 Bft)
18.06.2011 21:34 22,2 C 15,6 C 0,1 UV-I 0,0 C 48 % 64 % 0 % 1005,8 hPa 0,0 l/m 9,2 km/h (2 Bft) 0 min 0 min 12,9 km/h (3 Bft)
18.06.2011 21:36 22,1 C 15,5 C 0,1 UV-I 0,0 C 48 % 64 % 0 % 1005,8 hPa 0,0 l/m 8,8 km/h (2 Bft) 0 min 0 min 6,1 km/h (2 Bft)
18.06.2011 21:38 22,1 C 15,5 C 0,1 UV-I 0,0 C 48 % 64 % 0 % 1005,8 hPa 0,0 l/m 9,6 km/h (2 Bft) 0 min 0 min 13,5 km/h (3 Bft)
18.06.2011 21:40 22,1 C 15,4 C 0,1 UV-I 0,0 C 48 % 64 % 0 % 1005,8 hPa 0,0 l/m 10,0 km/h (2 Bft) 0 min 0 min 10,6 km/h (2 Bft)
18.06.2011 21:42 22,1 C 15,4 C 0,1 UV-I 0,0 C 48 % 65 % 0 % 1005,8 hPa 0,0 l/m 9,2 km/h (2 Bft) 0 min 0 min 6,8 km/h (2 Bft)
18.06.2011 21:44 22,1 C 15,3 C 0,1 UV-I 0,0 C 47 % 65 % 0 % 1005,8 hPa 0,0 l/m 8,8 km/h (2 Bft) 0 min 0 min 7,1 km/h (2 Bft)
18.06.2011 21:46 22,0 C 15,4 C 0,1 UV-I 0,0 C 48 % 65 % 0 % 1005,8 hPa 0,0 l/m 9,2 km/h (2 Bft) 0 min 0 min 5,5 km/h (1 Bft)
18.06.2011 21:48 22,0 C 15,3 C 0,1 UV-I 0,0 C 48 % 66 % 0 % 1005,8 hPa 0,0 l/m 8,4 km/h (2 Bft) 0 min 0 min 6,8 km/h (2 Bft)
18.06.2011 21:50 22,0 C 15,2 C 0,1 UV-I 0,0 C 48 % 66 % 0 % 1005,8 hPa 0,0 l/m 7,2 km/h (2 Bft) 0 min 0 min 8,7 km/h (2 Bft)
18.06.2011 21:52 22,0 C 15,2 C 0,1 UV-I 0,0 C 48 % 66 % 0 % 1005,8 hPa 0,0 l/m 6,4 km/h (2 Bft) 0 min 0 min 10,3 km/h (2 Bft)
18.06.2011 21:54 22,0 C 15,1 C 0,1 UV-I 0,0 C 48 % 66 % 0 % 1005,8 hPa 0,0 l/m 6,8 km/h (2 Bft) 0 min 0 min 4,2 km/h (1 Bft)
18.06.2011 21:56 22,0 C 15,1 C 0,1 UV-I 0,0 C 48 % 67 % 0 % 1005,8 hPa 0,0 l/m 7,2 km/h (2 Bft) 0 min 0 min 17,4 km/h (3 Bft)
18.06.2011 21:58 22,0 C 15,0 C 0,1 UV-I 0,0 C 48 % 67 % 0 % 1005,8 hPa 0,0 l/m 8,4 km/h (2 Bft) 0 min 0 min 26,4 km/h (4 Bft)
18.06.2011 22:00 22,0 C 15,0 C 0,1 UV-I 0,0 C 48 % 67 % 0 % 1005,8 hPa 0,0 l/m 8,8 km/h (2 Bft) 0 min 0 min 8,0 km/h (2 Bft)
18.06.2011 22:02 22,0 C 15,1 C 0,1 UV-I 0,0 C 48 % 67 % 0 % 1005,8 hPa 0,0 l/m 9,6 km/h (2 Bft) 0 min 0 min 7,7 km/h (2 Bft)
18.06.2011 22:04 21,9 C 14,9 C 0,0 UV-I 0,0 C 48 % 68 % 0 % 1005,8 hPa 0,0 l/m 8,8 km/h (2 Bft) 0 min 0 min 4,2 km/h (1 Bft)
18.06.2011 22:06 21,9 C 14,9 C 0,0 UV-I 0,0 C 48 % 68 % 0 % 1006,1 hPa 0,0 l/m 9,2 km/h (2 Bft) 0 min 0 min 7,1 km/h (2 Bft)
18.06.2011 22:08 21,9 C 14,9 C 0,0 UV-I 0,0 C 48 % 68 % 0 % 1006,1 hPa 0,0 l/m 8,8 km/h (2 Bft) 0 min 0 min 7,1 km/h (2 Bft)
18.06.2011 22:10 21,9 C 14,9 C 0,0 UV-I 0,0 C 48 % 68 % 0 % 1006,1 hPa 0,0 l/m 7,6 km/h (2 Bft) 0 min 0 min 5,1 km/h (1 Bft)
18.06.2011 22:12 21,8 C 14,9 C 0,0 UV-I 0,0 C 48 % 68 % 0 % 1006,1 hPa 0,0 l/m 7,6 km/h (2 Bft) 0 min 0 min 13,8 km/h (3 Bft)
18.06.2011 22:14 21,8 C 14,8 C 0,0 UV-I 0,0 C 48 % 69 % 0 % 1006,1 hPa 0,0 l/m 6,8 km/h (2 Bft) 0 min 0 min 6,8 km/h (2 Bft)
18.06.2011 22:16 21,8 C 14,8 C 0,0 UV-I 0,0 C 48 % 69 % 0 % 1006,1 hPa 0,0 l/m 7,2 km/h (2 Bft) 0 min 0 min 14,2 km/h (3 Bft)
18.06.2011 22:18 21,8 C 14,8 C 0,0 UV-I 0,0 C 48 % 69 % 0 % 1006,1 hPa 0,0 l/m 7,6 km/h (2 Bft) 0 min 0 min 11,9 km/h (2 Bft)
18.06.2011 22:20 21,8 C 14,9 C 0,0 UV-I 0,0 C 48 % 69 % 0 % 1006,1 hPa 0,0 l/m 7,2 km/h (2 Bft) 0 min 0 min 7,4 km/h (2 Bft)
18.06.2011 22:22 21,8 C 14,8 C 0,0 UV-I 0,0 C 48 % 69 % 0 % 1006,1 hPa 0,0 l/m 6,8 km/h (2 Bft) 0 min 0 min 0,0 km/h (0 Bft)
18.06.2011 22:24 21,8 C 14,7 C 0,0 UV-I 0,0 C 48 % 69 % 0 % 1006,1 hPa 0,0 l/m 6,4 km/h (2 Bft) 0 min 0 min 0,0 km/h (0 Bft)
18.06.2011 22:26 21,8 C 14,7 C 0,0 UV-I 0,0 C 48 % 69 % 0 % 1006,1 hPa 0,0 l/m 6,4 km/h (2 Bft) 0 min 0 min 4,5 km/h (1 Bft)
18.06.2011 22:28 21,8 C 14,6 C 0,0 UV-I 0,0 C 48 % 69 % 0 % 1006,1 hPa 0,0 l/m 6,0 km/h (2 Bft) 0 min 0 min 3,9 km/h (1 Bft)
18.06.2011 22:30 21,8 C 14,7 C 0,0 UV-I 0,0 C 48 % 70 % 0 % 1006,1 hPa 0,0 l/m 5,2 km/h (1 Bft) 0 min 0 min 5,5 km/h (1 Bft)
18.06.2011 22:32 21,8 C 14,6 C 0,0 UV-I 0,0 C 48 % 70 % 0 % 1006,1 hPa 0,0 l/m 5,6 km/h (1 Bft) 0 min 0 min 5,8 km/h (2 Bft)
18.06.2011 22:34 21,7 C 14,5 C 0,0 UV-I 0,0 C 48 % 70 % 0 % 1006,1 hPa 0,0 l/m 5,2 km/h (1 Bft) 0 min 0 min 0,0 km/h (0 Bft)
18.06.2011 22:36 21,7 C 14,5 C 0,0 UV-I 0,0 C 48 % 70 % 0 % 1006,1 hPa 0,0 l/m 5,6 km/h (1 Bft) 0 min 0 min 7,7 km/h (2 Bft)
18.06.2011 22:38 21,7 C 14,5 C 0,0 UV-I 0,0 C 49 % 70 % 0 % 1006,1 hPa 0,0 l/m 5,2 km/h (1 Bft) 0 min 0 min 5,8 km/h (2 Bft)
18.06.2011 22:40 21,7 C 14,5 C 0,0 UV-I 0,0 C 49 % 70 % 0 % 1006,1 hPa 0,0 l/m 5,2 km/h (1 Bft) 0 min 0 min 7,4 km/h (2 Bft)
18.06.2011 22:42 21,6 C 14,4 C 0,0 UV-I 0,0 C 49 % 70 % 0 % 1006,1 hPa 0,0 l/m 5,6 km/h (1 Bft) 0 min 0 min 6,4 km/h (2 Bft)
18.06.2011 22:44 21,6 C 14,4 C 0,0 UV-I 0,0 C 49 % 71 % 0 % 1006,1 hPa 0,0 l/m 6,0 km/h (2 Bft) 0 min 0 min 7,4 km/h (2 Bft)
18.06.2011 22:46 21,6 C 14,4 C 0,0 UV-I 0,0 C 49 % 71 % 0 % 1006,2 hPa 0,0 l/m 6,0 km/h (2 Bft) 0 min 0 min 3,2 km/h (1 Bft)
18.06.2011 22:48 21,6 C 14,5 C 0,0 UV-I 0,0 C 49 % 71 % 0 % 1006,2 hPa 0,0 l/m 6,0 km/h (2 Bft) 0 min 0 min 7,4 km/h (2 Bft)
18.06.2011 22:50 21,6 C 14,5 C 0,0 UV-I 0,0 C 49 % 70 % 0 % 1006,2 hPa 0,0 l/m 6,0 km/h (2 Bft) 0 min 0 min 10,9 km/h (2 Bft)
18.06.2011 22:52 21,6 C 14,4 C 0,0 UV-I 0,0 C 49 % 70 % 0 % 1006,2 hPa 0,0 l/m 6,8 km/h (2 Bft) 0 min 0 min 16,1 km/h (3 Bft)
18.06.2011 22:54 21,6 C 14,5 C 0,0 UV-I 0,0 C 49 % 70 % 0 % 1006,2 hPa 0,0 l/m 6,8 km/h (2 Bft) 0 min 0 min 9,3 km/h (2 Bft)
18.06.2011 22:56 21,6 C 14,5 C 0,0 UV-I 0,0 C 49 % 70 % 0 % 1006,2 hPa 0,0 l/m 7,2 km/h (2 Bft) 0 min 0 min 11,3 km/h (2 Bft)
18.06.2011 22:58 21,6 C 14,4 C 0,0 UV-I 0,0 C 49 % 70 % 0 % 1006,2 hPa 0,0 l/m 8,0 km/h (2 Bft) 0 min 0 min 6,1 km/h (2 Bft)
18.06.2011 23:00 21,6 C 14,4 C 0,0 UV-I 0,0 C 49 % 70 % 0 % 1006,2 hPa 0,0 l/m 9,2 km/h (2 Bft) 0 min 0 min 8,4 km/h (2 Bft)
18.06.2011 23:02 21,6 C 14,4 C 0,0 UV-I 0,0 C 49 % 70 % 0 % 1006,2 hPa 0,0 l/m 9,2 km/h (2 Bft) 0 min 0 min 10,3 km/h (2 Bft)
18.06.2011 23:04 21,5 C 14,5 C 0,0 UV-I 0,0 C 49 % 69 % 0 % 1006,2 hPa 0,0 l/m 8,8 km/h (2 Bft) 0 min 0 min 8,7 km/h (2 Bft)
18.06.2011 23:08 21,5 C 14,5 C 0,0 UV-I 0,0 C 49 % 69 % 0 % 1006,3 hPa 0,0 l/m 9,2 km/h (2 Bft) 0 min 0 min 5,5 km/h (1 Bft)
18.06.2011 23:10 21,5 C 14,5 C 0,0 UV-I 0,0 C 49 % 69 % 0 % 1006,3 hPa 0,0 l/m 8,4 km/h (2 Bft) 0 min 0 min 7,1 km/h (2 Bft)
18.06.2011 23:12 21,5 C 14,5 C 0,0 UV-I 0,0 C 49 % 69 % 0 % 1006,3 hPa 0,0 l/m 8,4 km/h (2 Bft) 0 min 0 min 4,8 km/h (1 Bft)
18.06.2011 23:14 21,5 C 14,4 C 0,0 UV-I 0,0 C 49 % 69 % 0 % 1006,3 hPa 0,0 l/m 7,2 km/h (2 Bft) 0 min 0 min 4,2 km/h (1 Bft)
18.06.2011 23:16 21,4 C 14,4 C 0,0 UV-I 0,0 C 49 % 69 % 0 % 1006,3 hPa 0,0 l/m 7,2 km/h (2 Bft) 0 min 0 min 11,6 km/h (2 Bft)
18.06.2011 23:18 21,4 C 14,4 C 0,0 UV-I 0,0 C 49 % 69 % 0 % 1006,3 hPa 0,0 l/m 6,8 km/h (2 Bft) 0 min 0 min 14,2 km/h (3 Bft)
18.06.2011 23:20 21,4 C 14,4 C 0,0 UV-I 0,0 C 49 % 69 % 0 % 1006,3 hPa 0,0 l/m 8,0 km/h (2 Bft) 0 min 0 min 6,1 km/h (2 Bft)
18.06.2011 23:22 21,4 C 14,4 C 0,0 UV-I 0,0 C 49 % 69 % 0 % 1006,3 hPa 0,0 l/m 8,0 km/h (2 Bft) 0 min 0 min 8,0 km/h (2 Bft)
18.06.2011 23:24 21,4 C 14,5 C 0,0 UV-I 0,0 C 49 % 69 % 0 % 1006,3 hPa 0,0 l/m 8,0 km/h (2 Bft) 0 min 0 min 8,0 km/h (2 Bft)
18.06.2011 23:26 21,4 C 14,4 C 0,0 UV-I 0,0 C 49 % 69 % 0 % 1005,9 hPa 0,0 l/m 8,8 km/h (2 Bft) 0 min 0 min 10,9 km/h (2 Bft)
18.06.2011 23:28 21,4 C 14,4 C 0,0 UV-I 0,0 C 49 % 69 % 0 % 1005,9 hPa 0,0 l/m 9,2 km/h (2 Bft) 0 min 0 min 5,8 km/h (2 Bft)
18.06.2011 23:30 21,4 C 14,4 C 0,0 UV-I 0,0 C 49 % 69 % 0 % 1005,9 hPa 0,0 l/m 7,6 km/h (2 Bft) 0 min 0 min 4,2 km/h (1 Bft)
18.06.2011 23:32 21,4 C 14,3 C 0,0 UV-I 0,0 C 49 % 69 % 0 % 1005,9 hPa 0,0 l/m 7,2 km/h (2 Bft) 0 min 0 min 6,8 km/h (2 Bft)
18.06.2011 23:34 21,4 C 14,3 C 0,0 UV-I 0,0 C 49 % 69 % 0 % 1005,9 hPa 0,0 l/m 7,2 km/h (2 Bft) 0 min 0 min 9,0 km/h (2 Bft)
18.06.2011 23:36 21,4 C 14,3 C 0,0 UV-I 0,0 C 49 % 69 % 0 % 1005,9 hPa 0,0 l/m 8,0 km/h (2 Bft) 0 min 0 min 8,7 km/h (2 Bft)
18.06.2011 23:38 21,4 C 14,3 C 0,0 UV-I 0,0 C 49 % 70 % 0 % 1005,9 hPa 0,0 l/m 8,8 km/h (2 Bft) 0 min 0 min 31,5 km/h (5 Bft)
18.06.2011 23:40 21,4 C 14,3 C 0,0 UV-I 0,0 C 49 % 70 % 0 % 1005,9 hPa 0,0 l/m 8,8 km/h (2 Bft) 0 min 0 min 8,7 km/h (2 Bft)
18.06.2011 23:42 21,4 C 14,3 C 0,0 UV-I 0,0 C 49 % 70 % 0 % 1005,9 hPa 0,0 l/m 10,4 km/h (2 Bft) 0 min 0 min 12,2 km/h (2 Bft)
18.06.2011 23:44 21,4 C 14,3 C 0,0 UV-I 0,0 C 49 % 70 % 0 % 1005,9 hPa 0,0 l/m 11,2 km/h (2 Bft) 0 min 0 min 16,4 km/h (3 Bft)
18.06.2011 23:46 21,4 C 14,3 C 0,0 UV-I 0,0 C 49 % 70 % 0 % 1006,1 hPa 0,0 l/m 10,4 km/h (2 Bft) 0 min 0 min 8,7 km/h (2 Bft)
18.06.2011 23:48 21,2 C 14,1 C 0,0 UV-I 0,0 C 49 % 71 % 0 % 1006,1 hPa 0,0 l/m 10,0 km/h (2 Bft) 0 min 0 min 9,0 km/h (2 Bft)
18.06.2011 23:50 21,2 C 14,1 C 0,0 UV-I 0,0 C 49 % 71 % 0 % 1006,1 hPa 0,0 l/m 9,2 km/h (2 Bft) 0 min 0 min 7,7 km/h (2 Bft)
18.06.2011 23:52 21,4 C 14,0 C 0,0 UV-I 0,0 C 49 % 71 % 0 % 1006,1 hPa 0,0 l/m 9,2 km/h (2 Bft) 0 min 0 min 10,3 km/h (2 Bft)
18.06.2011 23:54 21,2 C 14,0 C 0,0 UV-I 0,0 C 49 % 71 % 0 % 1006,1 hPa 0,0 l/m 9,2 km/h (2 Bft) 0 min 0 min 9,0 km/h (2 Bft)
18.06.2011 23:56 21,2 C 14,1 C 0,0 UV-I 0,0 C 49 % 72 % 0 % 1006,1 hPa 0,0 l/m 8,8 km/h (2 Bft) 0 min 0 min 7,1 km/h (2 Bft)
18.06.2011 23:58 21,2 C 14,0 C 0,0 UV-I 0,0 C 49 % 72 % 0 % 1006,1 hPa 0,0 l/m 8,0 km/h (2 Bft) 0 min 0 min 3,9 km/h (1 Bft)
_ Min-Zeit 04:22 16:36 00:00 00:00 16:02 15:46 00:00 04:46 - 00:00 - - 00:00
Minimum _ 21,2 C 12,8 C 0,0 UV-I 0,0 C 45 % 52 % 0 % 1001,4 hPa - 0,4 km/h (0 Bft) - - 0,0 km/h (0 Bft)
_ Max-Zeit 15:46 15:24 09:54 15:26 03:36 02:50 08:56 16:26 16:12 11:34 08:50 00:32 08:56
Maximum _ 23,6 C 19,5 C 8,9 UV-I 5,4 C 58 % 91 % 100 % 1006,4 hPa 1,1 l/m 17,7 km/h
S (3 Bft)
2 min 2 min 48,3 km/h
O (6 Bft)
Durchschnitt _ 22,0 C 15,3 C 1,9 UV-I 1,3 C 52 % 75 % 33 % 1004,3 hPa #4,5 l/m 7,6 km/h (2 Bft) #6:00 h #2:18 h 8,8 km/h (2 Bft)
© 2012 W. Hausmann